GFSMA_850_dewp_000.txt.gz
Dewpoint
4 4 3 4 3 0 -0 3 2 -2 0 -4 -6 -5 -6 -5 -5 -5 -6 -8 -7 -7 -7 -7 -7 -7 -7 -7 -7 -7 -7 -6 -6 -6 -6 -5 -5 -4 -3 -2 2 3 5
2 4 4 2 2 2 1 1 1 -2 -4 -2 -2 -3 -4 -6 -7 -7 -7 -8 -8 -8 -8 -7 -7 -7 -7 -7 -7 -7 -6 -6 -5 -5 -6 -6 -3 -1 -2 -1 4 7 7
4 4 5 4 3 2 1 0 -0 3 3 2 1 2 1 -1 -4 -6 -8 -8 -8 -8 -7 -7 -7 -7 -7 -7 -7 -7 -6 -6 -5 -4 -5 -5 -4 -2 -0 1 4 7 7
6 6 6 6 6 5 4 3 2 2 2 2 3 4 5 2 -0 -1 -3 -5 -6 -7 -7 -7 -7 -7 -7 -6 -7 -6 -6 -5 -4 -4 -3 -3 -3 -2 -2 2 6 7 7
3 3 5 6 7 7 6 5 5 5 5 5 6 5 4 3 4 4 2 0 -2 -3 -5 -6 -6 -6 -6 -6 -5 -5 -5 -5 -4 -3 -3 -3 -3 -2 2 5 6 7 7
1 3 3 5 7 8 8 8 7 7 7 6 7 7 6 6 5 4 4 4 4 3 2 -0 -3 -5 -5 -5 -5 -6 -7 -5 -4 -2 -3 -3 -2 3 4 5 6 8 7
1 2 4 5 8 9 9 9 9 8 8 8 8 8 8 7 7 7 6 5 3 3 3 2 0 -1 -3 -3 -4 -5 -5 -4 -5 -4 -3 3 3 3 4 6 6 7 7
3 6 6 6 8 9 10 10 10 10 9 9 9 9 9 8 7 6 5 4 3 4 5 6 5 3 1 -1 -2 -2 -0 2 2 3 4 4 4 6 5 5 6 7 8
10 10 10 10 10 11 10 10 11 11 10 10 10 9 9 8 6 6 5 4 4 6 7 5 5 4 2 -1 4 5 5 5 5 5 5 6 6 5 4 6 7 7 7
8 7 8 10 11 11 11 11 11 11 11 10 10 9 9 9 8 7 7 6 5 5 5 3 2 2 3 3 5 5 6 6 5 5 5 6 5 5 5 7 6 5 4
9 9 8 10 10 11 11 12 12 12 11 11 10 9 9 10 10 9 9 8 7 7 6 6 6 5 5 4 5 5 5 5 4 5 5 6 5 5 5 6 4 2 2
9 9 9 9 9 10 11 12 12 12 12 11 10 10 9 10 9 9 9 9 9 8 7 7 7 7 6 5 5 5 5 5 5 5 6 6 5 5 5 5 3 1 0
10 10 10 10 10 10 10 11 12 12 12 12 11 10 9 9 9 9 9 9 9 8 8 7 7 7 7 6 6 5 5 5 5 5 5 6 6 5 5 4 3 0 -1
8 9 10 10 11 11 11 11 11 12 12 12 12 11 11 10 10 10 9 9 8 8 8 8 8 7 7 7 6 6 6 5 5 5 5 6 6 6 5 5 3 -0 -2
-1 -1 4 7 8 9 10 11 11 11 11 11 11 11 11 11 11 10 10 10 9 9 8 8 8 8 7 7 7 7 6 6 5 6 6 6 7 7 5 5 2 -1 -4
1 0 0 -0 0 3 5 7 9 10 10 10 11 11 11 11 11 11 10 10 9 9 9 8 8 8 8 8 8 7 7 6 6 7 7 7 7 6 5 5 0 -2 -8
2 2 3 3 2 1 0 0 2 5 8 9 10 10 10 10 10 10 10 10 9 9 9 9 9 9 9 8 8 8 7 7 7 7 7 7 7 6 5 3 -1 -6 -18
-5 -5 -4 -2 -0 1 3 3 2 2 3 4 6 8 9 9 9 10 10 10 10 9 9 9 9 9 9 9 9 8 8 8 7 7 8 8 6 6 5 1 -3 -14 -24
-4 -5 -6 -6 -4 -1 2 2 3 3 4 5 6 6 6 7 9 9 9 10 10 9 9 9 9 9 9 9 9 9 9 8 7 7 8 8 7 6 5 -2 -10 -21 -28
-4 -4 -5 -6 -5 -4 -0 2 4 4 5 5 5 4 4 3 5 8 9 10 9 9 9 9 9 9 9 9 9 8 7 8 7 6 6 7 7 5 -0 -6 -16 -27 -25
-3 -3 -3 -3 -1 0 -0 3 2 3 4 4 4 4 4 3 4 4 8 9 9 9 9 9 9 9 9 8 7 8 8 7 7 6 5 6 5 1 -5 -14 -23 -26 -21
-2 -3 -2 -1 -1 0 0 -2 2 4 4 4 4 4 4 4 3 3 6 6 8 8 9 8 9 8 8 8 6 8 8 6 5 5 5 5 2 -4 -14 -20 -24 -21 -20
-4 -3 -2 -1 -0 -2 -1 1 2 2 3 3 3 3 3 5 6 5 4 5 6 7 8 9 8 9 8 8 6 7 7 7 6 6 5 2 -6 -14 -19 -20 -21 -19 -16
-5 -5 -5 -3 -2 -1 -0 0 -0 -0 -1 -1 0 2 3 4 5 6 5 4 6 7 7 8 7 8 8 8 8 7 7 6 6 3 0 -6 -11 -15 -18 -21 -20 -18 -14
-7 -9 -7 -6 -3 -3 -3 -4 -5 -9 -11 -7 1 2 3 2 2 4 5 5 4 6 7 6 7 6 8 8 8 7 7 6 4 2 -5 -10 -18 -16 -19 -20 -19 -22 -21
-13 -9 -10 -9 -7 -5 -7 -10 -17 -8 -6 -6 -13 -13 -5 -1 2 2 3 4 4 4 6 7 7 7 7 7 6 7 7 5 2 -3 -4 -9 -15 -15 -19 -21 -23 -23 -23

GFSMA_850_dewp_006.txt.gz
Dewpoint
1 1 1 2 2 2 1 0 -1 -3 -5 -6 -10 -13 -10 -7 -6 -6 -10 -9 -6 -5 -4 -4 -3 -4 -6 -6 -7 -7 -7 -7 -7 -7 -6 -6 -6 -6 -6 -6 -5 -4 -3
1 2 2 3 3 3 3 3 2 2 -0 -2 -3 -5 -7 -6 -5 -5 -5 -6 -7 -6 -5 -5 -6 -4 -2 -2 -3 -6 -6 -6 -6 -6 -6 -6 -6 -6 -5 -5 -2 6 7
2 3 3 3 4 5 5 5 5 5 4 3 1 -0 -3 -6 -5 -3 -4 -5 -5 -5 -5 -5 -5 -5 -5 -2 3 4 3 -1 -4 -5 -5 -5 -4 -4 -4 -1 4 6 7
4 5 5 5 5 6 6 7 6 6 6 6 5 4 3 2 1 -1 -1 0 0 -1 -2 -3 -5 -5 -6 -5 0 5 7 7 6 2 -2 -1 -0 -1 -1 -0 2 3 7
7 7 7 6 6 6 7 8 7 8 7 7 7 7 6 6 5 4 3 2 2 2 1 -0 -0 -1 -2 -3 -3 2 5 6 6 6 5 3 1 1 2 1 3 3 6
7 9 9 9 9 9 9 8 8 9 9 9 8 8 8 8 8 7 7 6 6 5 5 4 3 2 1 2 2 1 -0 -1 1 3 4 4 5 5 6 5 5 6 7
10 10 11 10 10 11 11 11 10 10 10 10 10 10 9 9 9 9 8 8 8 7 7 6 6 5 5 5 4 4 3 3 3 3 2 1 2 4 5 5 6 6 7
10 10 11 11 11 11 11 11 11 11 11 11 11 10 9 9 9 9 8 6 3 4 4 4 5 5 5 5 5 5 4 4 5 5 6 4 2 2 4 5 6 6 7
10 10 11 11 11 11 10 10 11 11 11 10 10 10 10 9 9 9 9 7 7 7 6 5 5 5 4 4 3 3 3 4 4 4 6 6 5 4 5 5 6 7 7
8 9 9 9 9 10 10 10 10 10 11 10 10 10 10 10 10 9 9 9 9 9 9 8 6 6 6 7 6 5 5 4 3 1 1 3 6 8 8 8 8 8 8
8 9 9 9 10 10 9 10 10 11 11 10 10 11 11 11 11 10 10 9 9 9 9 9 9 9 7 7 7 7 6 6 6 6 3 3 8 8 9 9 9 8 7
0 -0 1 3 5 5 5 7 8 9 9 11 11 11 11 11 11 10 10 10 10 8 8 9 9 9 9 8 6 5 7 7 7 6 6 4 7 8 8 9 8 7 6
2 1 1 0 -0 0 1 1 2 3 5 7 8 9 10 11 11 11 11 10 10 10 10 8 7 7 6 7 8 7 5 5 7 7 7 6 5 7 6 6 7 7 7
0 -2 -3 -5 -6 -7 -6 -4 -1 0 1 2 2 2 3 5 7 9 10 10 10 10 10 9 9 9 8 5 4 6 7 5 6 6 6 7 6 5 6 6 6 6 7
-1 -3 -4 -5 -6 -7 -8 -8 -8 -8 -5 -2 0 1 2 3 4 4 5 7 8 9 9 9 9 9 8 8 5 6 7 5 3 6 6 6 7 5 5 6 6 6 7
-2 -3 -4 -5 -6 -6 -6 -6 -6 -6 -5 -5 0 3 3 4 5 5 6 6 7 9 9 8 8 8 9 9 8 8 8 7 6 5 6 7 7 6 6 6 6 6 6
-3 -4 -6 -6 -5 -5 -5 -4 -2 -2 -1 1 3 2 1 2 3 4 4 4 5 6 7 6 7 7 8 8 8 9 9 8 7 7 6 6 7 7 7 6 7 6 6
-7 -9 -9 -9 -8 -7 -4 -2 -3 -0 1 -0 -1 -1 2 3 3 3 3 3 4 4 6 7 7 7 7 6 8 8 7 7 8 8 8 7 7 7 7 7 7 7 7
-17 -18 -16 -14 -12 -8 -6 -5 0 1 -3 -2 -0 2 2 1 1 -1 -0 2 3 3 4 6 7 7 7 7 7 7 8 8 9 7 5 7 7 7 8 7 8 7 7
-37 -36 -34 -31 -20 -10 -10 -7 -6 -6 -3 -1 -1 -2 -3 -6 -9 -8 0 2 2 4 5 5 6 6 6 6 7 7 8 7 7 8 8 8 6 6 8 7 7 7 7
-35 -34 -33 -30 -23 -17 -18 -11 -12 -9 -4 -2 -6 -8 -10 -13 -14 -2 -9 -9 -3 2 2 3 4 5 6 6 6 6 7 7 6 6 6 7 7 7 7 6 6 5 5
-32 -32 -32 -31 -31 -27 -17 -19 -15 -6 -3 -6 -8 -10 -15 -19 -11 -15 -22 -15 -10 0 2 2 3 4 4 5 5 6 6 7 6 6 4 5 6 5 5 5 5 4 4
-26 -26 -26 -26 -26 -25 -21 -13 -7 -6 -10 -10 -10 -12 -19 -15 -2 -9 -19 -18 -15 -4 -1 0 1 2 3 4 5 5 5 5 6 6 6 5 5 4 4 4 4 2 2
-24 -24 -23 -23 -22 -22 -18 -10 -7 -11 -14 -18 -14 -19 -20 -3 -5 -9 -11 -9 -11 -3 -1 -0 0 1 1 2 3 3 4 4 5 6 6 4 4 4 3 3 2 1 1
-22 -21 -20 -20 -20 -15 -12 -12 -14 -19 -18 -13 -10 -11 -6 -4 -4 -3 -4 -5 -4 -2 -1 -0 0 0 1 2 2 2 3 3 4 5 5 4 3 2 1 0 -0 -0 -0
-20 -19 -19 -18 -16 -13 -13 -12 -9 -8 -7 -7 -6 -6 -4 -4 -4 -4 -4 -4 -2 -2 -2 -1 -1 -1 1 1 2 2 3 3 3 3 4 3 0 -0 -2 -1 -1 -1 -2

GFSMA_850_dewp_009.txt.gz
Dewpoint
0 2 2 3 3 4 4 4 4 4 3 2 -0 -2 -5 -11 -12 -8 -7 -7 -8 -7 -4 -2 8 9 9 8 4 -3 -5 -6 -6 -6 -6 -6 -6 -6 -6 -6 -4 -2 -0
2 2 3 4 4 5 5 6 6 6 5 5 4 3 1 0 -3 -6 -7 -5 -4 -5 -8 -4 -2 8 9 9 9 9 7 2 -4 -5 -5 -6 -5 -6 -6 -5 -4 1 5
2 3 3 4 5 5 6 6 6 7 7 7 6 6 6 5 4 2 -1 -3 -4 -3 -3 -2 -2 -2 -0 6 9 9 9 8 8 8 5 0 -1 -2 -3 -3 -2 -0 6
4 5 5 6 6 7 7 7 7 7 7 7 7 7 7 7 7 7 6 5 3 1 -0 -1 -1 -2 -3 -2 5 6 8 8 8 8 7 7 6 5 3 1 -0 1 1
7 8 9 9 10 10 10 10 10 10 9 9 9 9 9 9 9 9 8 8 7 6 6 5 3 3 3 3 2 3 3 4 5 6 7 6 6 6 6 6 6 6 6
9 10 11 11 11 11 11 11 11 11 11 11 11 10 10 10 10 9 9 9 9 9 8 8 7 6 6 5 5 4 4 3 2 2 3 6 6 5 4 5 5 5 6
10 11 11 11 11 11 11 11 11 11 11 11 11 10 10 9 9 9 9 9 8 8 8 6 5 7 7 7 7 6 6 5 5 4 4 4 3 5 5 6 6 6 6
11 11 11 11 11 11 11 11 11 11 11 11 10 10 10 9 9 8 8 8 8 9 8 7 8 7 5 4 4 4 4 5 6 6 6 5 5 5 6 6 5 5 6
9 9 9 9 9 10 10 10 10 11 10 10 10 11 10 10 9 8 8 8 8 8 8 8 8 8 9 8 7 6 5 5 4 4 5 6 6 6 6 6 6 5 5
7 6 6 6 7 8 8 8 9 9 10 11 10 11 11 11 10 10 10 9 9 9 9 8 7 7 7 8 9 9 8 6 5 5 5 6 7 7 8 7 7 6 5
1 1 1 1 1 1 2 3 4 5 8 10 10 11 10 10 10 10 9 9 9 10 10 9 9 9 9 8 7 7 7 7 6 4 6 6 6 8 9 8 8 7 7
0 -0 -1 -1 -2 -3 -4 -4 -3 -0 1 2 3 5 6 6 8 9 10 10 10 10 9 10 9 9 10 9 9 8 7 7 6 6 4 6 7 8 8 8 8 8 8
-4 -3 -2 -3 -4 -5 -6 -6 -7 -8 -8 -6 -4 -1 1 2 3 3 5 6 8 7 9 8 8 9 8 8 8 8 8 8 4 4 5 3 5 7 8 7 7 8 8
-3 -3 -3 -3 -4 -5 -6 -6 -6 -6 -6 -6 -6 -5 -2 2 3 4 5 7 7 7 7 7 7 8 8 8 7 7 7 7 5 4 6 5 5 6 7 7 7 6 5
-3 -3 -3 -5 -6 -7 -8 -7 -7 -6 -5 -3 -2 -1 2 3 2 2 3 4 6 7 6 6 6 6 7 7 8 7 7 6 7 6 6 6 5 5 7 7 7 7 6
-5 -6 -8 -11 -12 -12 -12 -10 -8 -7 -5 -1 1 -0 -1 -1 -0 2 3 3 3 4 5 5 5 6 5 5 5 5 5 6 7 7 7 7 6 7 5 7 7 7 6
-13 -19 -26 -31 -31 -29 -24 -15 -11 -7 0 1 -2 -3 -2 1 3 1 0 0 -1 -0 4 3 4 4 5 5 6 6 5 5 5 5 7 7 7 7 7 6 7 7 7
-37 -37 -36 -36 -36 -34 -30 -23 -19 -8 -5 -10 -8 -3 -1 -1 -6 -9 -9 -7 -8 -2 2 3 2 3 5 5 5 5 6 6 6 5 5 6 6 7 8 7 7 7 7
-35 -35 -35 -34 -34 -33 -33 -31 -24 -14 -13 -14 -9 -3 -2 -8 -11 -13 -15 -1 -1 -13 -12 -3 2 2 2 3 4 4 5 6 5 6 6 6 6 6 6 7 6 7 8
-32 -32 -31 -31 -31 -31 -31 -29 -26 -19 -15 -11 -6 -3 -6 -8 -10 -16 -6 1 -4 -14 -6 -2 -2 1 1 1 3 4 5 6 5 4 4 3 5 5 6 6 4 6 8
-30 -30 -30 -30 -31 -30 -30 -28 -24 -15 -6 -5 -7 -10 -12 -12 -13 -13 -3 -3 -4 -6 -3 -3 -2 -1 -0 0 1 2 2 4 4 5 5 3 3 5 6 6 6 5 7
-29 -29 -29 -28 -29 -27 -26 -24 -16 -8 -6 -10 -12 -13 -16 -17 -17 -9 -7 -7 -4 -3 -3 -3 -3 -2 -2 -1 -0 1 1 2 3 4 5 5 5 4 4 5 5 4 6
-27 -27 -27 -27 -26 -25 -23 -19 -12 -8 -11 -13 -13 -12 -14 -12 -9 -6 -5 -4 -4 -3 -4 -4 -3 -2 -2 -1 -1 -0 0 1 2 2 3 4 4 4 4 5 6 5 5
-26 -26 -25 -24 -23 -22 -20 -15 -10 -10 -9 -9 -9 -9 -7 -6 -6 -5 -5 -5 -5 -6 -11 -5 -2 -2 -2 -2 -1 -0 -0 0 1 2 2 2 3 4 4 5 5 4 4
-25 -24 -23 -22 -21 -20 -16 -12 -8 -7 -8 -8 -8 -6 -6 -6 -6 -6 -6 -6 -6 -6 -5 -4 -3 -3 -3 -3 -2 -1 0 1 1 2 2 2 3 3 3 4 2 2 2
-23 -22 -21 -19 -18 -15 -13 -8 -8 -7 -7 -6 -6 -7 -8 -7 -7 -6 -6 -6 -4 -4 -3 -4 -4 -4 -4 -4 -3 -1 -1 -1 -1 -0 1 1 2 1 0 0 -0 -1 -1

GFSMA_850_dewp_012.txt.gz
Dewpoint
-0 1 1 2 3 4 5 5 6 6 6 6 6 5 5 4 2 0 -3 -9 -9 -6 -5 -6 -7 -0 8 9 10 8 8 4 1 0 -1 -3 -4 -4 -4 -4 0 4 6
0 1 3 4 4 5 5 6 6 6 6 6 6 7 6 6 6 6 5 3 0 -5 -5 -4 -3 -5 -1 8 9 10 9 8 7 6 3 0 -1 -2 -3 -3 -2 3 5
4 4 5 6 7 8 9 9 9 9 9 9 9 8 8 8 7 7 7 7 7 6 3 -2 -3 -3 -3 -0 6 8 9 9 9 8 8 7 7 5 2 -1 -2 -1 -1
7 8 8 8 9 10 11 11 11 11 11 11 11 11 11 10 10 9 9 9 8 8 8 7 5 3 1 -0 2 6 7 7 7 8 8 8 8 7 7 6 5 3 4
9 10 10 10 11 11 11 11 11 11 11 11 11 11 11 11 10 10 10 9 9 9 9 8 8 8 7 6 5 4 5 5 5 5 6 6 6 6 6 5 6 6 5
10 11 11 11 12 12 12 11 11 11 11 11 11 10 10 10 9 9 8 8 8 7 8 8 8 8 8 9 9 8 7 6 5 5 4 4 4 5 5 4 5 5 5
10 11 11 11 11 10 10 10 10 10 10 10 11 9 9 8 8 8 7 7 7 7 7 7 8 8 7 6 6 4 5 7 7 7 7 7 6 5 6 6 5 5 5
8 8 8 8 8 8 9 9 9 10 10 10 10 10 10 10 9 9 9 9 8 8 9 8 8 8 8 8 8 7 8 4 4 4 4 5 5 6 6 6 6 5 6
5 6 5 5 5 4 4 5 5 4 8 9 10 9 10 10 10 9 9 8 8 9 8 9 9 9 9 9 9 8 8 8 8 7 6 5 5 4 5 7 6 6 5
1 2 1 1 0 -1 -2 -2 -2 -2 0 2 5 7 9 9 9 9 9 9 9 8 8 8 8 8 9 9 9 9 9 8 8 9 9 8 5 5 6 7 7 6 6
-3 -3 -3 -3 -3 -3 -4 -5 -5 -6 -6 -6 -5 -3 -1 1 3 7 7 7 6 6 6 8 8 7 8 8 9 8 8 9 8 9 8 8 8 6 9 9 8 7 7
-5 -5 -5 -4 -4 -4 -4 -5 -6 -6 -6 -6 -5 -4 -2 1 2 3 6 6 6 6 6 6 5 5 6 7 7 7 8 9 8 8 8 8 9 9 8 9 9 8 9
-4 -4 -4 -5 -5 -6 -7 -8 -9 -9 -9 -7 -6 -4 -3 -0 2 3 1 4 5 5 5 5 5 6 6 6 6 7 7 8 7 7 8 8 8 8 8 8 8 9 8
-4 -5 -6 -8 -11 -15 -18 -21 -21 -17 -13 -10 -6 -2 0 -0 -1 -2 0 3 4 4 4 4 4 5 4 4 5 5 5 5 5 5 5 7 8 8 9 7 8 7 7
-8 -13 -20 -31 -36 -37 -37 -37 -35 -31 -22 -11 -2 0 -3 -5 -4 0 3 3 1 3 2 -0 2 2 2 2 2 3 4 4 4 5 5 5 6 8 8 8 8 8 7
-26 -34 -35 -35 -35 -35 -34 -34 -35 -33 -26 -11 -10 -13 -14 -9 -2 1 -5 -8 -11 -2 1 -2 -2 0 -0 -1 -1 2 2 2 2 3 5 5 5 6 6 7 8 6 6
-35 -34 -34 -33 -32 -31 -31 -32 -32 -31 -28 -23 -20 -17 -9 -2 -0 -3 -8 -8 -14 -7 1 -2 -5 -12 -14 -9 -1 1 2 2 3 3 3 4 5 6 6 6 6 8 8
-33 -32 -31 -30 -30 -30 -30 -30 -30 -27 -25 -22 -16 -9 -5 -5 -6 -7 -8 -10 -11 -1 -0 -1 -6 -11 -15 -17 -15 -7 0 -0 0 3 4 3 5 5 6 6 6 6 7
-31 -30 -30 -29 -29 -29 -29 -30 -29 -27 -21 -15 -7 -7 -8 -9 -11 -12 -12 -13 -5 -2 -2 -4 -7 -10 -12 -14 -8 -6 -9 -5 -0 2 4 5 5 4 3 3 5 5 5
-29 -29 -29 -28 -28 -28 -29 -29 -28 -26 -20 -11 -8 -10 -13 -13 -12 -10 -8 -7 -3 -3 -3 -3 -3 -3 -4 -7 -4 -4 -5 -4 -2 -1 2 3 3 4 3 2 3 4 5
-28 -28 -27 -27 -27 -28 -28 -27 -25 -20 -15 -12 -13 -15 -15 -15 -10 -7 -6 -6 -5 -4 -4 -4 -4 -3 -4 -4 -3 -3 -2 -3 -1 -0 -0 -0 0 0 3 5 4 2 4
-26 -26 -26 -26 -27 -28 -28 -25 -14 -10 -10 -10 -11 -12 -11 -10 -7 -6 -6 -6 -6 -6 -6 -5 -5 -5 -5 -4 -3 -2 -2 -2 -2 -1 -0 -0 1 2 1 -0 0 0 2
-25 -25 -26 -26 -27 -26 -23 -20 -9 -8 -8 -9 -10 -9 -9 -7 -6 -7 -7 -7 -6 -6 -6 -7 -6 -5 -5 -5 -3 -3 -3 -2 -2 -2 -1 -1 -0 1 1 3 2 2 3
-24 -25 -25 -25 -24 -23 -20 -14 -8 -8 -9 -9 -9 -9 -6 -7 -9 -7 -6 -6 -6 -9 -9 -5 -4 -4 -4 -3 -3 -4 -3 -3 -3 -2 -1 0 0 1 1 2 2 2 2
-24 -24 -24 -23 -22 -22 -17 -9 -8 -8 -9 -8 -9 -8 -7 -8 -8 -7 -7 -7 -8 -8 -9 -8 -6 -5 -5 -5 -5 -4 -4 -4 -3 -3 -3 -1 -0 0 0 1 2 2 2
-23 -24 -24 -22 -21 -18 -15 -9 -8 -8 -8 -9 -8 -8 -9 -8 -8 -7 -8 -7 -7 -9 -9 -7 -7 -8 -7 -6 -6 -6 -5 -5 -4 -4 -3 -2 -1 -0 -0 1 2 1 2

GFSMA_850_dewp_015.txt.gz
Dewpoint
2 2 3 3 4 4 5 6 7 7 7 7 7 7 7 7 7 7 6 6 6 4 0 -7 -8 -7 -7 -6 3 7 8 8 8 6 2 1 -2 -3 -3 -1 0 1 4
4 5 5 5 6 8 8 9 10 10 10 10 10 10 10 10 10 9 8 7 7 7 7 6 3 -3 -6 -4 2 5 7 5 8 9 8 6 3 -2 -3 -3 -3 -2 1
8 8 8 8 9 10 10 11 11 11 11 11 11 11 11 11 11 11 10 10 9 8 8 8 8 7 5 1 1 3 3 2 6 8 8 9 8 8 7 6 3 -1 -3
10 10 10 10 10 11 11 11 11 11 10 10 10 10 10 11 10 10 10 9 9 8 8 8 8 8 8 8 7 6 5 3 2 3 6 7 7 7 7 7 7 6 6
10 10 10 10 10 11 11 11 11 11 10 9 10 9 10 9 9 9 9 8 8 7 7 7 7 7 8 9 9 9 8 7 5 4 3 3 4 5 5 6 6 6 6
9 10 10 11 11 10 10 9 9 9 9 9 10 10 9 9 8 7 7 7 7 8 7 7 8 8 7 8 8 9 9 9 9 8 7 5 4 5 5 5 5 4 5
9 8 8 7 7 7 7 7 7 7 7 7 8 9 9 8 8 8 8 9 8 8 8 8 8 9 8 8 8 8 7 8 8 7 8 8 8 6 6 6 6 6 6
4 3 3 2 1 1 -0 -1 -1 -2 -2 -1 6 7 8 7 8 9 8 7 9 7 9 9 9 8 8 9 8 9 9 8 9 7 7 5 5 6 8 8 7 7 6
1 1 1 -0 -2 -3 -3 -4 -4 -5 -5 -5 -5 3 6 6 6 4 6 6 6 8 8 6 8 8 8 9 9 9 9 9 9 9 8 8 8 8 7 6 6 7 7
-5 -5 -5 -5 -5 -5 -5 -5 -5 -5 -6 -6 -6 -5 -5 -3 3 2 0 2 3 5 6 5 4 3 3 4 4 5 5 5 8 9 9 9 9 9 10 10 9 7 7
-4 -4 -4 -4 -5 -6 -7 -9 -10 -10 -11 -10 -8 -5 -5 -3 1 3 3 2 3 3 4 3 1 4 7 7 3 3 4 5 7 8 9 9 9 10 11 11 10 10 8
-2 -3 -4 -6 -8 -12 -17 -24 -31 -34 -32 -25 -17 -9 -1 2 3 3 2 1 2 1 2 3 3 2 2 3 5 5 5 6 6 7 6 7 7 9 10 10 10 10 10
-2 -4 -8 -13 -21 -32 -35 -35 -34 -34 -34 -33 -27 -14 -4 -0 -1 -2 -0 1 2 2 3 3 3 4 4 3 4 4 3 4 4 5 6 7 7 7 7 8 8 10 10
-9 -15 -24 -32 -33 -33 -32 -31 -30 -31 -31 -31 -27 -19 -18 -21 -19 -9 -1 1 1 1 0 -0 -1 0 1 1 1 -2 -3 -3 -3 -3 -2 4 4 4 4 5 6 7 7
-18 -26 -32 -32 -32 -30 -29 -29 -29 -29 -29 -29 -29 -29 -26 -21 -11 -3 -0 0 -2 1 -3 -5 -4 -3 0 0 -3 -7 -10 -9 -2 2 3 3 2 2 3 5 5 5 6
-30 -32 -31 -30 -29 -29 -28 -28 -27 -27 -28 -28 -25 -25 -20 -15 -10 -4 -3 -3 -1 -4 -4 -6 -6 -2 -1 -4 -7 -6 -5 -11 -14 -12 -9 -2 2 3 4 4 5 5 6
-31 -30 -30 -29 -28 -27 -26 -26 -26 -27 -27 -25 -22 -15 -8 -6 -12 -14 -12 -9 -9 -9 -8 -9 -5 -2 -2 -5 -6 -5 -10 -12 -10 -10 -12 -10 -5 0 3 4 5 5 6
-30 -29 -28 -28 -26 -25 -24 -25 -26 -26 -23 -19 -13 -7 -8 -11 -12 -11 -11 -9 -7 -6 -6 -4 -2 -4 -5 -4 -3 -4 -5 -4 -7 -12 -11 -5 -4 0 2 4 6 6 5
-29 -28 -26 -25 -24 -23 -24 -25 -26 -25 -21 -16 -10 -9 -12 -11 -10 -9 -7 -7 -6 -6 -6 -5 -4 -5 -5 -4 -5 -5 -4 -7 -6 -7 -3 -3 -3 -5 -3 2 3 4 4
-27 -25 -23 -23 -23 -23 -25 -26 -25 -21 -18 -14 -11 -11 -10 -9 -8 -7 -7 -6 -6 -6 -6 -6 -6 -6 -6 -6 -6 -6 -6 -5 -6 -5 -3 -1 -2 -5 -4 -2 1 2 2
-24 -22 -22 -22 -23 -24 -26 -25 -18 -16 -14 -12 -12 -10 -9 -8 -7 -7 -6 -7 -6 -7 -6 -6 -6 -6 -6 -7 -6 -6 -5 -5 -5 -2 -3 -6 -2 -2 -1 2 2 3 2
-21 -20 -20 -22 -23 -25 -25 -25 -22 -11 -8 -8 -9 -9 -8 -8 -7 -7 -7 -7 -6 -6 -7 -6 -6 -7 -7 -7 -6 -5 -4 -4 -4 -4 -4 -4 -2 -3 -3 -3 -3 -1 -0
-19 -20 -21 -22 -24 -24 -24 -23 -9 -8 -8 -8 -8 -8 -9 -8 -7 -8 -8 -7 -7 -7 -8 -8 -7 -7 -7 -9 -6 -5 -4 -4 -5 -5 -4 -4 -4 -2 -2 -1 -1 0 2
-20 -21 -22 -23 -24 -24 -22 -15 -8 -8 -9 -9 -8 -8 -8 -7 -9 -8 -8 -7 -10 -13 -9 -8 -8 -8 -8 -7 -7 -6 -5 -6 -6 -6 -4 -4 -3 -3 -3 -0 0 0 -0
-20 -21 -22 -23 -23 -23 -18 -11 -8 -9 -10 -9 -9 -8 -7 -9 -9 -8 -7 -8 -10 -10 -10 -9 -8 -8 -7 -7 -6 -6 -6 -6 -6 -6 -5 -5 -6 -3 -2 -1 -1 -0 0
-20 -21 -22 -22 -21 -20 -16 -9 -9 -9 -9 -9 -8 -8 -9 -10 -8 -8 -8 -9 -10 -10 -9 -9 -10 -11 -10 -9 -7 -7 -7 -6 -6 -6 -6 -5 -6 -6 -4 -2 -2 -1 -1

GFSMA_850_dewp_021.txt.gz
Dewpoint
10 10 10 10 10 10 10 11 11 11 11 11 11 11 11 11 11 11 11 10 10 10 10 10 10 9 8 7 6 4 -1 -7 -8 -6 3 8 8 7 4 -3 -4 -5 -5
12 11 11 11 11 11 11 11 11 11 11 11 11 11 11 11 10 10 10 10 10 10 10 9 9 9 10 10 10 8 7 6 4 -4 -5 6 7 8 8 7 6 1 -4
12 11 11 12 12 12 11 11 11 11 11 11 10 10 10 10 9 9 9 10 10 10 10 10 10 9 8 8 11 12 11 11 10 8 6 1 2 6 8 9 9 8 7
12 11 12 12 12 11 11 11 10 10 9 9 9 8 8 8 8 8 8 9 9 9 9 10 10 9 9 8 8 9 10 11 11 11 10 10 8 6 6 7 7 7 8
11 11 11 10 9 9 8 8 6 6 6 5 5 5 5 6 5 5 6 8 8 8 9 9 8 9 8 8 8 8 8 8 9 10 10 11 11 10 9 7 6 7 7
7 6 4 1 -1 1 1 -2 -1 -1 -1 1 1 1 0 1 -0 4 6 5 7 8 7 5 7 7 9 9 8 8 9 8 9 9 9 9 10 11 11 10 9 7 6
-0 -3 -5 -5 -4 -3 -1 -2 -2 -2 -2 -0 0 -0 -1 -1 0 -0 3 6 6 3 1 2 2 4 6 8 7 5 7 7 7 8 8 9 9 9 10 10 10 10 9
-5 -4 -3 -2 -2 -3 -4 -5 -5 -5 -4 -4 -2 -3 -2 -3 -1 -2 -6 -5 -4 -2 0 2 3 2 2 1 4 5 5 5 5 7 7 7 7 8 9 10 10 10 10
-3 -2 -2 -4 -6 -7 -8 -11 -12 -13 -8 -9 -5 -4 -4 -4 -2 -4 -5 -4 -2 -3 -3 0 1 -2 -1 -2 0 2 3 3 5 7 8 8 8 8 8 7 9 10 9
-2 -4 -5 -6 -8 -11 -15 -22 -20 -21 -9 -6 -9 -8 -8 -4 -2 -2 -5 -6 -6 -7 -13 -9 -8 -8 -5 -2 -0 2 2 3 4 4 6 7 7 7 7 8 8 7 8
-4 -3 -6 -8 -11 -16 -24 -27 -26 -25 -19 -8 -12 -10 -7 -5 -4 -6 -6 -8 -8 -10 -10 -8 -6 -6 -7 -3 -1 2 3 1 1 3 4 4 4 4 5 6 7 8 7
-4 -4 -7 -11 -18 -24 -27 -27 -26 -26 -25 -19 -16 -14 -8 -4 -5 -8 -8 -8 -7 -6 -5 -6 -5 -5 -3 -4 -3 -3 -3 -3 -2 1 2 2 2 2 4 4 4 6 6
-4 -5 -8 -15 -23 -27 -28 -27 -26 -25 -22 -16 -17 -10 -12 -9 -7 -9 -8 -7 -6 -5 -4 -6 -6 -9 -8 -7 -7 -8 -7 -6 -5 -2 -0 -0 0 -0 0 0 1 1 3
-6 -8 -13 -20 -27 -28 -26 -24 -23 -19 -14 -14 -12 -11 -11 -10 -10 -9 -8 -6 -5 -6 -9 -10 -9 -8 -10 -10 -10 -11 -11 -13 -9 -3 -2 -1 -2 -3 -2 -1 -3 -1 2
-9 -14 -21 -27 -28 -25 -22 -19 -18 -16 -15 -15 -14 -13 -12 -11 -10 -10 -7 -7 -8 -8 -9 -10 -10 -10 -8 -9 -8 -7 -9 -5 -4 -4 -4 -5 -4 -2 -3 -2 -1 1 1
-15 -24 -28 -28 -26 -23 -19 -18 -18 -17 -15 -15 -13 -12 -11 -11 -10 -10 -8 -9 -10 -10 -9 -9 -9 -8 -8 -6 -8 -7 -7 -7 -8 -7 -6 -5 -5 -5 -4 -4 -1 -0 -0
-27 -28 -27 -26 -22 -19 -18 -17 -17 -16 -15 -14 -13 -12 -11 -11 -10 -10 -10 -10 -10 -9 -9 -8 -8 -7 -7 -8 -8 -7 -7 -6 -7 -8 -7 -6 -6 -6 -7 -5 -4 -3 -2
-28 -27 -25 -20 -18 -17 -17 -16 -16 -15 -15 -13 -12 -11 -11 -10 -10 -9 -10 -10 -9 -9 -9 -7 -7 -7 -8 -7 -7 -6 -8 -8 -8 -9 -7 -7 -8 -7 -5 -5 -5 -4 -3
-26 -24 -19 -17 -17 -17 -16 -15 -15 -15 -13 -12 -11 -11 -10 -10 -9 -10 -10 -9 -9 -8 -7 -7 -7 -8 -8 -6 -7 -8 -11 -11 -9 -8 -8 -7 -7 -6 -4 -4 -4 -4 -4
-23 -18 -17 -16 -16 -15 -15 -15 -16 -15 -12 -11 -10 -10 -10 -10 -10 -10 -9 -8 -7 -6 -8 -7 -8 -7 -6 -7 -7 -9 -10 -9 -8 -9 -9 -9 -7 -6 -6 -5 -3 -2 -2
-18 -16 -15 -14 -15 -15 -16 -15 -14 -11 -10 -9 -9 -10 -10 -10 -10 -9 -9 -8 -7 -7 -7 -7 -6 -6 -7 -8 -9 -9 -10 -9 -8 -8 -8 -7 -6 -6 -7 -5 -5 -6 -7
-16 -15 -14 -14 -15 -15 -15 -12 -10 -10 -9 -9 -9 -10 -10 -11 -11 -10 -9 -9 -7 -7 -8 -7 -6 -6 -8 -9 -10 -9 -8 -7 -8 -8 -7 -7 -7 -7 -6 -6 -5 -4 -4
-15 -14 -14 -15 -15 -15 -14 -12 -10 -9 -9 -9 -10 -10 -11 -11 -10 -10 -9 -8 -8 -9 -7 -8 -7 -8 -10 -10 -9 -8 -7 -7 -8 -9 -7 -7 -7 -6 -6 -5 -5 -5 -3
-14 -15 -15 -15 -15 -15 -14 -12 -10 -9 -9 -10 -10 -10 -10 -10 -10 -8 -8 -7 -9 -9 -10 -10 -10 -9 -9 -8 -8 -8 -8 -8 -8 -8 -7 -7 -6 -8 -6 -7 -7 -9 -7
-15 -16 -16 -15 -15 -15 -14 -11 -9 -9 -9 -10 -10 -10 -9 -8 -9 -8 -8 -8 -9 -10 -11 -10 -9 -10 -10 -10 -9 -9 -9 -8 -8 -8 -8 -8 -8 -6 -7 -9 -9 -9 -4
-16 -16 -15 -16 -16 -15 -12 -10 -9 -9 -9 -9 -9 -9 -9 -9 -9 -8 -8 -9 -9 -11 -9 -10 -10 -11 -11 -11 -9 -10 -9 -9 -9 -8 -10 -9 -8 -8 -7 -7 -6 -5 -7

GFSMA_850_dewp_024.txt.gz
Dewpoint
10 10 10 10 10 10 11 11 11 11 11 11 11 11 11 10 10 10 10 10 10 10 10 10 10 10 10 11 11 11 11 9 9 6 1 3 7 7 9 9 7 3 -2
11 11 10 11 12 12 11 11 11 11 11 11 11 10 9 9 9 9 9 9 9 9 9 9 10 10 10 10 11 10 11 11 11 10 10 9 8 6 6 7 8 8 7
12 11 11 11 11 11 11 10 10 10 9 9 8 7 8 8 3 3 4 4 6 8 9 9 9 8 8 8 9 10 10 10 10 11 11 11 10 9 8 6 7 8 8
11 11 11 11 11 10 9 9 8 7 4 4 3 4 4 4 3 2 0 2 6 7 7 8 8 9 8 8 8 8 8 6 8 8 10 10 11 11 10 10 8 6 8
11 11 11 8 5 5 3 0 -3 -2 -2 -3 -2 -1 -2 -1 -5 -3 1 3 6 7 7 7 5 3 3 4 7 9 9 9 7 6 7 9 9 10 10 10 10 10 9
6 4 -1 -4 -4 -3 -2 -2 -3 -4 -5 -5 -6 -7 -9 -9 -2 0 -1 2 2 2 4 4 5 -1 1 3 4 6 7 9 8 7 6 7 7 9 9 9 10 10 11
-5 -5 -3 -2 -2 -4 -5 -6 -7 -8 -9 -12 -14 -11 -13 -6 -8 -7 -1 -7 -11 -13 -10 -6 -1 0 2 3 3 3 0 1 4 5 6 7 6 6 6 8 10 10 10
-3 -2 -2 -4 -5 -5 -6 -8 -12 -14 -18 -18 -8 -11 -8 -9 -4 -16 -14 -18 -6 -4 -4 -11 -9 -8 -10 -11 -10 -16 -13 -9 -6 4 5 6 7 8 7 8 9 9 9
-2 -3 -3 -3 -4 -6 -8 -13 -17 -22 -22 -22 -19 -11 -6 -5 -9 -9 -11 -9 -5 -15 -11 -11 -16 -17 -15 -9 -6 -6 -6 -3 1 4 5 6 6 6 7 7 7 7 8
-2 -2 -3 -4 -6 -8 -12 -17 -22 -24 -25 -24 -24 -24 -20 -13 -5 -4 -6 -12 -13 -15 -15 -12 -11 -7 -5 -7 -10 -7 -2 1 1 2 3 4 4 5 5 5 6 6 6
-2 -2 -3 -5 -7 -10 -15 -21 -23 -25 -26 -24 -21 -19 -21 -18 -17 -7 -5 -8 -9 -10 -10 -9 -6 -8 -6 -10 -6 -4 -5 -4 -5 -2 -1 1 2 3 3 4 4 4 4
-2 -3 -4 -6 -10 -15 -20 -24 -25 -26 -26 -23 -20 -18 -15 -9 -12 -10 -7 -8 -9 -9 -8 -7 -7 -5 -12 -11 -9 -8 -8 -9 -8 -4 -3 -2 -3 -3 -2 1 2 2 2
-2 -3 -6 -9 -14 -21 -25 -26 -26 -25 -22 -20 -18 -17 -15 -13 -14 -9 -9 -9 -8 -8 -7 -8 -9 -10 -11 -9 -11 -13 -11 -12 -12 -8 -7 -6 -4 -2 -2 -1 -2 -2 -1
-4 -6 -9 -15 -23 -26 -27 -26 -23 -21 -19 -18 -17 -17 -15 -14 -12 -11 -10 -8 -9 -7 -8 -9 -10 -10 -10 -9 -10 -8 -9 -6 -7 -7 -7 -6 -5 -4 -3 -4 -5 -2 -2
-8 -12 -19 -23 -26 -26 -24 -20 -18 -18 -18 -19 -17 -16 -16 -14 -12 -11 -10 -10 -8 -8 -8 -9 -9 -9 -9 -9 -8 -6 -8 -8 -8 -7 -6 -7 -5 -6 -5 -5 -4 -4 -3
-14 -20 -24 -25 -25 -22 -19 -18 -17 -18 -19 -17 -16 -18 -15 -12 -11 -11 -10 -10 -9 -9 -9 -9 -9 -8 -9 -8 -7 -8 -9 -8 -8 -6 -6 -7 -6 -5 -6 -6 -6 -5 -6
-20 -24 -25 -26 -22 -19 -17 -17 -18 -19 -18 -16 -18 -18 -13 -12 -11 -10 -10 -9 -9 -9 -8 -8 -9 -9 -7 -8 -11 -8 -8 -7 -7 -7 -9 -9 -9 -8 -7 -6 -7 -6 -5
-23 -26 -25 -22 -19 -17 -17 -18 -18 -17 -16 -17 -19 -16 -13 -10 -10 -10 -9 -10 -9 -9 -9 -9 -8 -7 -8 -10 -8 -8 -6 -7 -6 -8 -9 -10 -8 -6 -7 -7 -5 -5 -6
-26 -25 -21 -19 -17 -17 -18 -17 -17 -16 -16 -16 -17 -15 -12 -11 -9 -9 -10 -10 -10 -9 -7 -6 -7 -9 -7 -8 -8 -7 -7 -7 -9 -10 -11 -9 -9 -8 -8 -7 -7 -6 -5
-24 -21 -19 -16 -16 -17 -16 -16 -15 -14 -13 -12 -13 -14 -10 -9 -9 -10 -10 -9 -8 -7 -7 -7 -7 -7 -7 -8 -7 -7 -8 -10 -11 -11 -10 -9 -8 -8 -8 -7 -7 -6 -6
-21 -18 -16 -16 -16 -16 -15 -14 -12 -11 -11 -11 -12 -11 -9 -9 -9 -9 -9 -8 -8 -8 -7 -6 -7 -7 -7 -8 -8 -9 -10 -11 -10 -9 -8 -8 -9 -9 -9 -8 -7 -6 -5
-18 -16 -16 -16 -16 -16 -16 -12 -11 -11 -10 -10 -10 -9 -9 -10 -10 -9 -9 -9 -8 -7 -7 -7 -7 -8 -10 -10 -9 -8 -9 -9 -9 -8 -8 -10 -9 -8 -9 -8 -7 -5 -4
-16 -16 -17 -18 -17 -18 -17 -12 -11 -10 -9 -10 -9 -9 -9 -10 -10 -10 -9 -8 -7 -8 -8 -9 -10 -10 -10 -9 -9 -9 -8 -8 -8 -9 -9 -9 -8 -8 -8 -9 -9 -7 -6
-16 -17 -19 -19 -19 -18 -15 -13 -11 -10 -9 -9 -9 -9 -9 -9 -9 -9 -8 -8 -8 -10 -9 -9 -11 -10 -9 -9 -9 -9 -9 -9 -9 -9 -9 -8 -9 -8 -10 -10 -8 -8 -7
-18 -19 -19 -20 -18 -17 -16 -12 -10 -10 -10 -9 -9 -8 -9 -9 -9 -8 -8 -8 -9 -9 -12 -11 -9 -9 -10 -10 -10 -10 -10 -9 -10 -10 -10 -10 -9 -9 -10 -10 -11 -10 -6
-18 -19 -19 -19 -18 -16 -15 -11 -10 -10 -9 -9 -8 -9 -9 -9 -10 -8 -8 -9 -9 -11 -10 -9 -11 -13 -13 -12 -10 -10 -10 -10 -10 -10 -11 -10 -10 -9 -9 -10 -8 -8 -8

GFSMA_850_dewp_027.txt.gz
Dewpoint
10 10 10 10 10 11 11 11 11 10 10 10 11 11 11 10 9 9 9 9 9 9 9 9 10 9 10 10 10 10 9 10 11 11 11 10 9 6 6 7 7 8 8
11 11 10 10 11 11 11 10 10 10 10 10 9 7 4 1 2 2 1 3 5 4 4 7 7 11 10 10 9 7 6 8 8 10 10 11 11 10 9 8 7 7 8
11 11 11 11 11 10 10 10 10 9 7 1 0 -1 -2 -1 -1 -1 -1 -0 -0 2 5 6 8 8 9 9 10 9 8 7 7 6 6 8 10 11 11 10 10 9 7
11 11 11 10 10 10 9 7 2 -3 -3 -3 -3 -4 -4 -5 -5 -3 -5 -4 1 3 6 7 6 5 4 3 3 5 7 8 9 9 9 8 7 8 9 10 11 11 10
11 10 10 9 5 0 -3 -3 -3 -4 -5 -7 -8 -9 -9 -10 -10 -7 -2 1 1 2 2 2 0 0 0 -0 0 1 3 5 6 7 8 8 8 7 6 8 9 10 10
9 5 -2 -4 -3 -3 -4 -5 -6 -7 -9 -11 -11 -11 -12 -11 -8 -5 -5 -5 -5 -12 -12 -11 -7 -8 -7 -7 -2 -2 -3 -2 -1 -1 -0 2 4 6 5 5 7 8 9
-5 -3 -3 -3 -4 -4 -5 -6 -7 -8 -10 -13 -14 -13 -14 -14 -12 -9 -10 -13 -16 -16 -11 -13 -15 -18 -17 -14 -14 -15 -20 -17 -11 -1 2 3 5 5 7 7 7 7 8
-2 -3 -3 -3 -4 -4 -6 -8 -11 -13 -16 -21 -18 -17 -14 -14 -8 -18 -14 -18 -17 -11 -14 -20 -28 -29 -26 -26 -17 -12 -11 -13 -12 -1 0 2 3 4 4 5 5 5 8
-2 -2 -2 -2 -3 -5 -7 -11 -15 -19 -21 -21 -23 -15 -11 -9 -16 -14 -20 -13 -8 -15 -17 -24 -26 -25 -18 -9 -8 -7 -12 -17 -1 1 2 2 3 4 4 4 5 6 5
-1 -1 -1 -2 -3 -6 -10 -15 -19 -22 -24 -24 -24 -22 -17 -15 -9 -7 -11 -19 -16 -16 -21 -20 -18 -15 -7 -13 -11 -7 -9 -5 -4 -2 -1 0 0 -0 0 1 2 4 5
-1 -1 -2 -3 -6 -10 -14 -19 -22 -24 -25 -23 -21 -21 -20 -19 -17 -9 -9 -12 -12 -13 -17 -13 -16 -9 -11 -8 -14 -17 -11 -8 -6 -5 -4 -4 -4 -2 0 -1 -1 -0 1
-1 -2 -4 -7 -9 -15 -20 -23 -24 -24 -23 -22 -19 -18 -16 -16 -13 -14 -13 -11 -9 -10 -9 -9 -9 -8 -9 -11 -11 -14 -13 -12 -8 -6 -5 -5 -4 -4 -3 -3 1 2 1
-2 -4 -8 -11 -16 -21 -23 -24 -24 -23 -20 -19 -19 -19 -19 -17 -16 -16 -12 -11 -10 -9 -10 -9 -9 -9 -9 -10 -10 -9 -9 -8 -6 -5 -5 -5 -5 -5 -4 -3 -4 -4 -2
-4 -8 -12 -16 -21 -23 -24 -23 -21 -19 -18 -19 -20 -20 -17 -18 -20 -16 -12 -11 -9 -10 -9 -9 -9 -9 -10 -9 -8 -9 -9 -7 -7 -8 -7 -7 -7 -6 -6 -4 -4 -5 -4
-6 -11 -15 -19 -22 -25 -22 -19 -17 -17 -19 -20 -20 -19 -19 -21 -22 -17 -12 -12 -10 -8 -9 -9 -9 -9 -9 -9 -9 -8 -8 -10 -9 -8 -7 -7 -7 -5 -5 -7 -7 -7 -5
-9 -14 -19 -24 -25 -22 -18 -17 -17 -19 -20 -21 -21 -19 -18 -21 -21 -18 -11 -10 -10 -9 -8 -9 -9 -9 -10 -9 -8 -8 -10 -9 -9 -8 -8 -7 -7 -4 -7 -7 -7 -8 -6
-14 -20 -25 -24 -21 -19 -17 -18 -19 -20 -20 -20 -18 -17 -17 -19 -17 -14 -12 -10 -9 -9 -9 -10 -10 -10 -9 -10 -9 -9 -7 -8 -8 -8 -7 -6 -6 -7 -7 -8 -9 -5 -5
-21 -25 -24 -21 -18 -17 -18 -19 -20 -21 -18 -16 -15 -14 -15 -17 -13 -11 -9 -9 -9 -10 -9 -9 -9 -8 -9 -10 -8 -8 -7 -8 -8 -7 -7 -8 -8 -9 -9 -9 -8 -7 -7
-25 -24 -21 -17 -17 -19 -20 -22 -20 -16 -14 -13 -12 -12 -13 -13 -11 -9 -9 -9 -9 -8 -7 -7 -7 -9 -8 -7 -8 -7 -8 -10 -9 -10 -11 -11 -11 -10 -9 -8 -6 -6 -7
-24 -20 -17 -17 -19 -21 -21 -21 -16 -14 -12 -11 -11 -11 -12 -12 -9 -8 -9 -9 -7 -8 -8 -8 -8 -7 -8 -7 -9 -10 -11 -11 -10 -9 -10 -10 -9 -9 -8 -9 -9 -8 -7
-19 -16 -17 -18 -21 -22 -21 -16 -13 -11 -11 -11 -11 -11 -11 -10 -9 -9 -9 -9 -9 -8 -7 -7 -7 -7 -8 -10 -11 -11 -10 -10 -9 -9 -9 -9 -8 -9 -10 -10 -9 -8 -7
-16 -16 -18 -21 -21 -21 -21 -16 -11 -11 -11 -10 -10 -10 -10 -9 -9 -9 -9 -9 -8 -7 -8 -7 -7 -8 -10 -10 -10 -10 -9 -8 -9 -10 -9 -9 -9 -10 -10 -10 -9 -8 -7
-16 -18 -20 -20 -20 -22 -23 -14 -11 -11 -10 -10 -10 -10 -9 -9 -9 -9 -10 -9 -9 -8 -8 -8 -9 -9 -9 -10 -9 -8 -9 -9 -9 -9 -10 -10 -10 -9 -9 -10 -9 -8 -8
-17 -19 -20 -20 -21 -22 -19 -13 -11 -10 -10 -10 -10 -9 -9 -9 -9 -9 -8 -8 -8 -9 -10 -9 -10 -10 -9 -9 -9 -10 -10 -10 -10 -10 -10 -10 -10 -10 -11 -11 -9 -8 -8
-19 -19 -20 -21 -20 -19 -17 -12 -10 -9 -10 -10 -10 -10 -9 -9 -10 -9 -9 -8 -9 -10 -13 -11 -9 -9 -11 -11 -10 -10 -10 -10 -10 -10 -13 -10 -11 -11 -10 -11 -12 -12 -8
-19 -19 -20 -20 -19 -17 -15 -10 -9 -10 -9 -11 -10 -11 -10 -10 -10 -9 -8 -9 -10 -13 -10 -10 -11 -14 -14 -13 -10 -11 -11 -11 -11 -11 -13 -11 -11 -10 -10 -11 -11 -10 -9

GFSMA_850_dewp_030.txt.gz
Dewpoint
10 10 10 10 10 11 11 10 10 10 10 9 9 10 10 9 8 4 3 3 4 7 8 8 7 7 8 9 10 9 9 9 8 6 8 9 10 11 11 10 7 6 8
11 11 11 11 10 10 10 10 10 9 9 8 8 6 0 -2 -2 -1 -0 -1 -1 -2 -2 0 5 6 7 9 9 8 9 10 9 9 8 8 8 8 10 11 11 10 8
11 11 11 10 10 10 10 10 9 9 8 0 -3 -3 -3 -4 -4 -4 -4 -3 -3 -4 -0 3 5 6 6 6 6 6 7 7 7 7 5 5 9 8 8 8 9 11 11
11 10 10 10 9 9 9 8 -0 -3 -3 -4 -6 -7 -8 -9 -10 -10 -10 -7 -2 1 2 1 2 3 2 0 -1 -0 1 2 2 3 4 5 7 7 8 9 8 7 8
10 10 9 9 7 0 -3 -3 -4 -5 -5 -6 -7 -8 -10 -11 -11 -5 -1 -0 -3 -5 -8 -11 -9 -7 -6 -6 -7 -6 -5 -3 -2 -1 1 2 3 4 5 7 8 7 7
10 9 1 -3 -3 -3 -4 -5 -5 -7 -9 -10 -11 -11 -11 -13 -10 -14 -12 -10 -11 -12 -15 -14 -8 -11 -14 -20 -23 -18 -14 -11 -7 -4 -3 -2 0 2 3 5 6 7 7
-2 -3 -3 -3 -3 -4 -4 -5 -7 -9 -11 -12 -13 -12 -14 -14 -14 -9 -12 -15 -21 -23 -17 -10 -17 -27 -30 -33 -32 -31 -29 -24 -14 -6 -2 2 3 4 4 5 5 5 5
-3 -2 -2 -2 -2 -2 -4 -7 -9 -12 -16 -20 -21 -16 -17 -15 -10 -14 -15 -21 -21 -22 -22 -21 -28 -30 -30 -29 -27 -25 -28 -25 -17 -6 -1 1 2 2 2 3 4 4 5
-2 -2 -1 -1 -2 -4 -7 -10 -13 -16 -19 -22 -22 -15 -16 -12 -17 -16 -21 -18 -22 -26 -28 -29 -30 -29 -27 -26 -19 -21 -19 -20 -10 -3 -2 -2 -0 0 1 1 1 1 2
-1 -1 -1 -2 -4 -8 -10 -15 -19 -21 -22 -22 -21 -19 -17 -15 -15 -13 -16 -23 -21 -24 -24 -25 -24 -22 -23 -18 -18 -16 -18 -11 -8 -5 -3 -3 -2 -2 -1 -1 -1 -0 1
-1 -1 -2 -5 -9 -11 -16 -20 -22 -22 -21 -21 -19 -18 -19 -19 -19 -11 -11 -15 -24 -26 -26 -22 -21 -21 -17 -15 -13 -13 -10 -9 -6 -4 -5 -4 -3 -3 -3 -2 -2 -2 -1
-1 -2 -5 -9 -12 -16 -19 -21 -22 -21 -20 -18 -18 -19 -20 -19 -16 -15 -16 -15 -12 -15 -15 -21 -21 -17 -14 -12 -12 -13 -9 -7 -6 -6 -5 -4 -3 -4 -4 -3 -3 -2 -2
-2 -4 -8 -12 -15 -19 -22 -23 -22 -20 -19 -18 -19 -20 -20 -18 -17 -18 -21 -19 -13 -12 -12 -11 -10 -10 -10 -10 -12 -11 -9 -8 -8 -6 -6 -6 -5 -5 -5 -5 -4 -4 -3
-3 -6 -11 -15 -18 -22 -23 -21 -20 -18 -18 -20 -21 -22 -21 -20 -20 -20 -20 -16 -11 -11 -10 -10 -11 -10 -9 -10 -9 -9 -10 -10 -8 -8 -8 -7 -7 -6 -6 -6 -6 -4 -2
-4 -8 -12 -17 -23 -24 -21 -19 -18 -19 -21 -22 -23 -21 -20 -19 -19 -20 -22 -17 -9 -8 -10 -9 -9 -9 -10 -10 -10 -10 -9 -9 -8 -7 -8 -8 -8 -7 -7 -6 -6 -4 -3
-7 -12 -17 -23 -24 -22 -18 -17 -19 -21 -22 -22 -20 -18 -18 -17 -17 -20 -17 -13 -10 -9 -8 -10 -10 -9 -9 -9 -9 -9 -8 -7 -9 -9 -8 -8 -7 -7 -5 -5 -5 -4 -4
-12 -18 -24 -24 -22 -18 -18 -20 -21 -21 -21 -19 -17 -16 -14 -13 -15 -16 -15 -12 -10 -9 -8 -9 -10 -9 -8 -9 -9 -8 -7 -8 -8 -8 -8 -9 -9 -8 -7 -7 -6 -6 -8
-19 -24 -23 -20 -17 -18 -20 -22 -21 -21 -19 -17 -15 -12 -12 -13 -13 -14 -13 -10 -9 -9 -8 -7 -9 -9 -9 -10 -8 -8 -7 -8 -8 -10 -10 -10 -9 -8 -9 -9 -9 -8 -8
-24 -23 -19 -17 -18 -20 -22 -22 -22 -20 -19 -14 -12 -11 -12 -11 -12 -12 -10 -9 -9 -8 -8 -9 -9 -10 -9 -9 -9 -7 -8 -11 -11 -12 -11 -11 -10 -9 -9 -9 -8 -7 -7
-23 -18 -16 -18 -20 -21 -22 -23 -22 -18 -14 -12 -12 -11 -11 -10 -11 -9 -9 -8 -8 -8 -8 -8 -8 -7 -8 -8 -8 -10 -11 -11 -12 -12 -10 -9 -9 -10 -9 -9 -8 -8 -8
-17 -16 -17 -19 -21 -22 -23 -24 -16 -12 -12 -12 -11 -10 -10 -10 -9 -9 -9 -8 -9 -8 -8 -8 -8 -8 -8 -10 -10 -10 -11 -10 -10 -9 -9 -11 -10 -10 -10 -10 -10 -10 -9
-15 -17 -19 -20 -21 -22 -23 -19 -11 -11 -12 -10 -10 -10 -11 -11 -9 -9 -9 -9 -9 -8 -9 -8 -7 -9 -10 -10 -10 -10 -9 -9 -10 -11 -11 -10 -10 -10 -11 -12 -10 -9 -8
-16 -18 -20 -20 -21 -23 -23 -19 -13 -12 -11 -10 -10 -11 -11 -10 -10 -11 -10 -9 -10 -8 -8 -9 -10 -10 -10 -10 -9 -9 -10 -10 -10 -11 -10 -10 -11 -10 -11 -11 -10 -9 -8
-17 -19 -20 -20 -21 -23 -22 -21 -18 -12 -12 -12 -12 -11 -9 -10 -10 -10 -9 -9 -9 -12 -12 -11 -11 -10 -9 -10 -10 -10 -10 -10 -10 -11 -11 -11 -12 -11 -12 -12 -12 -11 -9
-18 -19 -20 -21 -22 -22 -21 -20 -10 -10 -11 -11 -12 -9 -9 -10 -10 -9 -8 -9 -10 -11 -14 -11 -10 -10 -11 -11 -10 -10 -11 -11 -11 -12 -13 -11 -12 -11 -11 -12 -13 -13 -12
-18 -19 -21 -23 -22 -21 -19 -16 -9 -10 -10 -11 -9 -10 -10 -10 -9 -9 -10 -10 -11 -13 -10 -10 -12 -14 -14 -13 -11 -11 -11 -11 -11 -11 -12 -11 -11 -10 -10 -11 -11 -11 -11

GFSMA_850_dewp_033.txt.gz
Dewpoint
10 10 10 10 10 10 10 10 10 9 9 9 9 8 9 9 5 2 0 2 2 2 1 0 1 2 4 5 6 10 11 10 10 10 9 8 8 8 8 9 11 11 10
11 11 11 11 11 10 10 10 9 9 8 8 8 7 1 -2 -3 -3 -3 -2 -1 -2 -2 -3 -2 2 4 5 7 7 8 8 9 9 9 8 7 5 3 7 8 8 10
11 11 11 10 9 9 9 9 9 9 8 3 -3 -3 -4 -6 -7 -8 -9 -9 -9 -7 -4 -2 1 2 3 3 4 4 4 4 4 3 3 4 4 4 5 7 8 8 8
10 10 10 10 9 9 9 7 -0 -3 -3 -4 -5 -5 -7 -8 -9 -11 -11 -9 -5 -2 -2 -4 -6 -7 -5 -4 -2 -1 -1 -1 -1 -1 0 0 1 2 4 5 5 7 8
10 10 10 9 7 -1 -3 -3 -4 -5 -6 -7 -8 -9 -10 -11 -11 -10 -5 -2 -3 -8 -11 -11 -12 -12 -10 -10 -11 -13 -16 -15 -12 -9 -7 -5 -3 -2 -1 2 2 4 7
10 10 7 -3 -3 -3 -4 -4 -4 -6 -8 -9 -10 -10 -12 -13 -13 -9 -13 -13 -13 -16 -23 -20 -15 -11 -13 -23 -30 -31 -31 -29 -26 -22 -16 -10 -6 0 0 4 5 5 6
9 -2 -3 -3 -3 -3 -3 -3 -7 -9 -10 -11 -12 -12 -14 -14 -16 -15 -11 -14 -17 -24 -23 -27 -29 -28 -31 -32 -32 -32 -32 -30 -21 -10 -7 -2 2 2 2 3 3 3 4
-3 -3 -2 -2 -1 -2 -5 -9 -9 -11 -15 -17 -18 -16 -18 -17 -14 -11 -19 -20 -23 -23 -27 -28 -30 -31 -32 -32 -32 -32 -32 -30 -23 -8 -3 -2 -0 0 1 1 2 2 2
-2 -2 -1 -1 -2 -6 -10 -10 -12 -15 -18 -19 -21 -16 -18 -15 -19 -19 -21 -22 -21 -25 -28 -30 -31 -31 -30 -31 -31 -29 -28 -26 -13 -4 -3 -2 -1 -1 -0 0 0 1 1
-2 -1 -1 -2 -5 -10 -11 -13 -16 -18 -20 -21 -21 -19 -18 -17 -18 -16 -18 -23 -23 -25 -29 -30 -30 -30 -31 -29 -25 -22 -22 -18 -10 -5 -3 -2 -1 -1 -1 -1 -1 -1 -0
-1 -1 -1 -4 -8 -11 -13 -16 -18 -20 -21 -20 -18 -18 -19 -20 -18 -13 -13 -18 -25 -27 -29 -28 -29 -29 -26 -22 -19 -18 -13 -8 -7 -5 -3 -3 -3 -2 -2 -1 -1 -1 -2
-1 -1 -3 -6 -10 -13 -16 -18 -21 -21 -20 -18 -18 -19 -20 -18 -16 -15 -15 -16 -16 -20 -24 -30 -27 -25 -25 -21 -18 -16 -14 -8 -6 -6 -5 -5 -4 -3 -3 -3 -3 -3 -2
-1 -2 -4 -8 -13 -16 -19 -22 -22 -20 -18 -18 -20 -21 -22 -20 -18 -18 -17 -18 -16 -19 -16 -13 -15 -17 -19 -18 -17 -16 -13 -8 -8 -7 -7 -5 -5 -5 -5 -5 -5 -4 -4
-1 -3 -7 -12 -16 -20 -23 -22 -20 -18 -19 -21 -22 -22 -21 -19 -18 -17 -15 -16 -14 -12 -13 -12 -13 -13 -11 -10 -10 -9 -10 -10 -9 -8 -7 -6 -6 -6 -6 -6 -6 -5 -5
-2 -6 -11 -16 -21 -23 -22 -20 -18 -20 -22 -23 -23 -21 -19 -18 -16 -16 -16 -16 -12 -9 -11 -11 -10 -11 -10 -9 -9 -9 -9 -9 -8 -8 -8 -7 -8 -7 -6 -6 -6 -5 -4
-5 -10 -16 -21 -23 -22 -19 -18 -20 -22 -23 -23 -22 -20 -18 -15 -14 -15 -14 -15 -14 -11 -8 -12 -11 -10 -9 -9 -9 -9 -10 -8 -9 -8 -8 -8 -7 -7 -8 -7 -8 -8 -7
-9 -15 -21 -23 -22 -19 -18 -20 -22 -23 -24 -24 -23 -17 -15 -13 -13 -12 -12 -13 -11 -10 -9 -10 -12 -11 -12 -11 -11 -9 -9 -8 -8 -8 -7 -8 -9 -9 -9 -8 -7 -6 -7
-14 -21 -22 -21 -18 -18 -20 -22 -23 -24 -24 -22 -18 -15 -13 -12 -11 -11 -11 -10 -10 -10 -8 -8 -10 -12 -12 -12 -11 -8 -8 -8 -8 -9 -11 -11 -10 -10 -9 -9 -7 -7 -7
-20 -22 -20 -17 -17 -20 -22 -22 -24 -24 -21 -18 -15 -13 -12 -10 -10 -10 -10 -10 -9 -8 -8 -8 -9 -9 -9 -8 -9 -8 -10 -11 -12 -12 -11 -10 -10 -9 -9 -8 -8 -7 -7
-22 -20 -16 -17 -19 -21 -22 -23 -24 -20 -18 -15 -14 -12 -11 -11 -11 -9 -9 -9 -8 -9 -9 -9 -8 -8 -8 -8 -10 -11 -12 -12 -12 -11 -10 -10 -9 -9 -9 -9 -9 -9 -9
-19 -16 -17 -18 -20 -21 -22 -23 -22 -17 -14 -14 -12 -13 -13 -13 -10 -9 -9 -10 -9 -9 -8 -8 -8 -8 -9 -11 -12 -11 -10 -10 -10 -10 -10 -10 -10 -10 -11 -10 -10 -10 -9
-15 -16 -17 -20 -21 -22 -23 -25 -22 -15 -14 -14 -15 -15 -14 -13 -11 -10 -10 -9 -9 -9 -8 -8 -10 -10 -11 -11 -11 -10 -9 -10 -10 -11 -10 -12 -11 -10 -12 -12 -11 -9 -9
-14 -16 -18 -20 -21 -23 -24 -23 -19 -11 -15 -15 -14 -13 -12 -10 -11 -11 -10 -9 -8 -9 -9 -10 -11 -11 -10 -10 -9 -10 -10 -10 -10 -10 -10 -11 -12 -12 -13 -13 -11 -10 -9
-14 -16 -18 -19 -21 -24 -23 -22 -16 -17 -14 -13 -12 -11 -9 -11 -10 -10 -9 -8 -11 -12 -13 -12 -10 -10 -9 -10 -10 -10 -10 -10 -10 -11 -11 -11 -12 -12 -12 -12 -12 -13 -10
-14 -16 -18 -20 -24 -24 -22 -22 -21 -13 -11 -11 -11 -9 -9 -10 -10 -9 -9 -9 -10 -12 -14 -10 -10 -10 -11 -11 -10 -10 -11 -11 -11 -11 -12 -11 -12 -11 -11 -12 -13 -12 -11
-15 -18 -19 -24 -24 -23 -23 -22 -11 -10 -10 -10 -8 -10 -10 -10 -10 -9 -10 -10 -11 -13 -10 -10 -13 -13 -13 -12 -11 -11 -11 -11 -11 -11 -12 -11 -11 -11 -10 -11 -11 -11 -10

GFSMA_850_dewp_036.txt.gz
Dewpoint
11 10 10 10 10 10 10 9 9 9 9 8 8 8 8 7 4 -1 -1 -2 -3 -2 -1 -1 -1 -1 -1 0 2 4 6 8 8 10 9 9 9 9 8 8 9 9 9
10 10 10 11 11 10 9 9 9 8 8 8 8 5 -1 -3 -4 -5 -7 -8 -8 -8 -7 -6 -5 -4 -2 1 3 4 6 6 7 7 7 8 8 8 7 5 3 1 3
10 10 10 10 9 9 8 8 8 8 3 -2 -3 -4 -5 -6 -6 -8 -9 -10 -10 -8 -6 -5 -4 -3 -2 -2 -1 1 2 3 3 3 3 3 3 3 3 3 3 3 2
11 10 10 9 9 9 8 5 -2 -3 -4 -4 -6 -7 -8 -9 -10 -11 -11 -9 -6 -3 -3 -5 -9 -10 -9 -10 -11 -12 -9 -7 -5 -3 -1 -1 -1 -1 -0 1 1 -0 1
11 10 9 9 9 1 -3 -3 -4 -5 -5 -6 -9 -10 -10 -11 -12 -12 -9 -9 -11 -11 -11 -15 -20 -20 -16 -13 -12 -13 -18 -25 -24 -21 -21 -19 -15 -11 -7 -2 0 2 5
10 10 9 6 -3 -3 -4 -3 -4 -7 -10 -11 -11 -12 -12 -13 -14 -13 -9 -11 -13 -14 -17 -22 -23 -26 -28 -29 -30 -30 -31 -31 -31 -29 -26 -17 -10 -1 3 3 3 4 4
10 9 -2 -3 -3 -2 -2 -6 -11 -11 -11 -12 -13 -13 -16 -15 -17 -16 -14 -12 -13 -21 -22 -23 -26 -29 -30 -31 -32 -32 -32 -32 -32 -27 -17 -6 -1 -0 1 1 2 2 3
9 -2 -3 -2 -1 -1 -5 -10 -11 -12 -13 -14 -16 -18 -20 -21 -15 -12 -22 -22 -21 -20 -24 -27 -29 -30 -31 -32 -32 -33 -33 -33 -29 -15 -2 -2 -0 0 1 1 1 2 2
-3 -3 -2 -1 -1 -4 -7 -11 -12 -13 -15 -18 -21 -20 -20 -19 -19 -20 -22 -22 -23 -26 -27 -28 -29 -29 -30 -31 -31 -31 -30 -29 -25 -5 -3 -2 -1 -0 0 0 1 1 1
-3 -2 -1 -1 -2 -5 -9 -12 -13 -15 -19 -22 -21 -20 -19 -19 -19 -18 -21 -24 -24 -26 -27 -27 -28 -29 -29 -29 -29 -28 -27 -27 -15 -5 -3 -2 -2 -1 -1 -1 -0 -0 -0
-2 -1 -1 -1 -3 -6 -11 -13 -15 -19 -22 -21 -19 -19 -20 -22 -21 -14 -16 -22 -25 -25 -26 -27 -27 -26 -27 -26 -24 -23 -21 -8 -6 -5 -4 -3 -3 -3 -2 -2 -1 0 -1
-1 -1 -1 -2 -5 -9 -13 -15 -19 -22 -22 -20 -19 -21 -22 -21 -20 -17 -16 -17 -16 -19 -24 -24 -26 -26 -26 -25 -25 -24 -21 -8 -7 -5 -5 -5 -4 -4 -3 -3 -3 -2 -2
-1 -1 -1 -3 -7 -11 -15 -20 -22 -21 -19 -20 -22 -23 -23 -21 -19 -18 -16 -16 -15 -19 -17 -16 -18 -18 -19 -21 -21 -20 -18 -11 -9 -7 -7 -6 -5 -5 -5 -5 -4 -3 -3
-1 -1 -3 -6 -10 -15 -20 -22 -21 -19 -20 -22 -23 -23 -22 -20 -18 -16 -14 -14 -14 -14 -14 -13 -15 -13 -13 -14 -11 -9 -10 -10 -9 -8 -8 -7 -7 -6 -6 -6 -6 -6 -5
-1 -2 -5 -9 -14 -19 -21 -21 -19 -20 -22 -23 -23 -23 -22 -19 -16 -15 -14 -13 -11 -11 -12 -12 -12 -13 -12 -10 -10 -9 -10 -11 -8 -8 -8 -8 -8 -7 -7 -7 -6 -5 -5
-2 -4 -8 -13 -18 -21 -20 -18 -20 -22 -23 -24 -24 -23 -21 -18 -15 -14 -13 -11 -10 -11 -9 -13 -12 -11 -11 -10 -12 -10 -11 -9 -9 -8 -8 -8 -7 -8 -7 -6 -8 -8 -8
-4 -7 -11 -18 -21 -19 -18 -19 -22 -22 -24 -24 -23 -21 -19 -17 -15 -13 -11 -10 -11 -10 -9 -12 -11 -13 -12 -12 -13 -11 -9 -8 -9 -8 -8 -8 -8 -8 -8 -8 -8 -7 -7
-5 -10 -17 -20 -19 -17 -19 -21 -22 -23 -24 -23 -21 -19 -18 -15 -13 -12 -11 -11 -10 -10 -8 -9 -10 -11 -11 -13 -10 -8 -9 -12 -13 -12 -10 -10 -10 -9 -9 -9 -8 -8 -8
-9 -16 -20 -18 -16 -18 -20 -21 -22 -23 -23 -21 -19 -17 -16 -14 -14 -14 -11 -10 -9 -9 -9 -9 -9 -10 -11 -9 -9 -11 -12 -13 -13 -12 -11 -10 -9 -9 -9 -8 -8 -7 -7
-15 -20 -17 -16 -16 -19 -20 -22 -23 -24 -23 -22 -20 -18 -17 -15 -14 -10 -9 -9 -9 -10 -10 -9 -9 -9 -9 -11 -11 -13 -12 -12 -11 -10 -11 -10 -9 -9 -9 -9 -9 -9 -9
-19 -17 -15 -15 -17 -19 -20 -22 -24 -23 -21 -20 -18 -16 -14 -13 -12 -9 -9 -9 -9 -9 -9 -8 -9 -9 -10 -11 -12 -12 -10 -10 -10 -10 -11 -12 -11 -11 -12 -12 -12 -10 -9
-16 -14 -14 -15 -17 -19 -21 -25 -25 -21 -20 -16 -15 -13 -13 -12 -11 -10 -10 -9 -9 -8 -8 -9 -10 -10 -11 -11 -11 -10 -10 -10 -10 -10 -10 -11 -11 -11 -11 -12 -11 -10 -9
-14 -13 -14 -16 -17 -20 -24 -26 -26 -23 -15 -14 -13 -13 -12 -11 -12 -11 -11 -9 -8 -9 -10 -10 -11 -11 -10 -10 -9 -10 -10 -10 -10 -10 -10 -11 -12 -12 -12 -12 -11 -10 -9
-13 -13 -14 -16 -18 -23 -26 -26 -25 -20 -14 -13 -12 -11 -10 -11 -11 -10 -9 -8 -10 -12 -13 -12 -10 -10 -10 -10 -10 -10 -10 -10 -10 -11 -11 -11 -12 -12 -12 -12 -12 -11 -9
-12 -12 -15 -17 -22 -25 -26 -26 -24 -13 -13 -12 -11 -9 -10 -10 -10 -9 -9 -9 -10 -13 -14 -11 -10 -10 -11 -12 -10 -10 -11 -11 -11 -11 -12 -11 -12 -11 -11 -12 -12 -12 -9
-12 -13 -15 -21 -25 -26 -25 -24 -15 -11 -10 -11 -9 -10 -11 -10 -9 -9 -10 -10 -11 -13 -10 -10 -12 -13 -13 -12 -12 -11 -11 -12 -12 -12 -12 -11 -11 -11 -11 -11 -11 -11 -11

GFSMA_850_dewp_039.txt.gz
Dewpoint
10 10 10 10 10 10 9 9 9 9 8 8 8 8 7 5 -1 -4 -4 -5 -6 -7 -7 -5 -4 -4 -4 -3 -2 -1 0 3 3 5 7 6 8 9 8 9 8 8 8
10 9 9 9 10 10 9 8 8 8 8 7 5 -1 -4 -4 -5 -5 -6 -7 -8 -9 -8 -8 -7 -6 -4 -2 -1 1 2 3 4 5 5 5 5 5 6 7 8 7 6
10 10 9 9 9 9 8 8 8 7 0 -3 -4 -5 -6 -7 -8 -9 -10 -11 -10 -9 -7 -5 -5 -6 -7 -8 -8 -8 -8 -8 -7 -5 -2 1 2 2 2 2 3 3 3
10 11 9 9 9 9 9 6 -2 -4 -4 -5 -6 -8 -10 -11 -11 -11 -11 -9 -6 -4 -6 -8 -12 -17 -19 -20 -19 -16 -13 -12 -14 -15 -16 -15 -12 -9 -7 -3 -1 -0 -0
12 10 9 9 9 8 -3 -3 -4 -4 -7 -11 -13 -12 -12 -12 -13 -12 -11 -10 -11 -13 -14 -15 -17 -21 -24 -25 -27 -29 -30 -30 -27 -26 -27 -26 -25 -24 -18 -11 -3 2 1
11 10 10 9 5 -3 -3 -2 -4 -10 -12 -13 -13 -13 -14 -15 -15 -14 -11 -10 -14 -13 -14 -20 -22 -24 -26 -28 -30 -31 -31 -32 -32 -31 -29 -26 -18 -6 1 2 2 3 3
11 10 9 3 -3 -3 -1 -4 -8 -11 -13 -13 -14 -16 -19 -18 -21 -18 -16 -16 -21 -21 -21 -20 -24 -28 -28 -29 -30 -30 -30 -31 -32 -31 -28 -19 -4 1 1 1 2 2 2
10 9 3 -3 -3 -1 -3 -5 -9 -12 -13 -14 -18 -20 -22 -21 -14 -18 -20 -21 -22 -23 -25 -26 -27 -26 -26 -26 -27 -28 -28 -29 -29 -28 -18 -2 -1 -0 0 1 1 1 2
8 3 -3 -2 -1 -1 -3 -5 -9 -12 -14 -18 -21 -22 -20 -18 -20 -21 -23 -23 -24 -26 -25 -25 -25 -27 -27 -28 -28 -29 -29 -29 -29 -20 -3 -2 -1 -1 -0 -0 1 1 1
4 -3 -2 -1 -0 -1 -4 -7 -10 -14 -18 -21 -22 -21 -20 -21 -19 -16 -23 -22 -23 -24 -24 -25 -26 -26 -26 -26 -27 -27 -27 -28 -23 -5 -3 -2 -2 -2 -1 -1 -1 -1 -0
-1 -2 -1 -1 -1 -2 -5 -8 -13 -17 -20 -21 -20 -20 -22 -23 -23 -18 -15 -20 -22 -22 -23 -24 -24 -25 -25 -25 -24 -25 -24 -11 -6 -5 -4 -4 -3 -3 -2 -2 -2 -1 -1
-2 -2 -1 -1 -1 -3 -6 -11 -16 -20 -21 -20 -20 -22 -23 -22 -21 -18 -13 -13 -14 -17 -21 -21 -23 -24 -25 -23 -25 -26 -24 -21 -7 -6 -6 -5 -4 -4 -4 -4 -3 -3 -2
-2 -1 -1 -1 -2 -5 -9 -15 -19 -20 -19 -20 -22 -23 -23 -22 -22 -21 -17 -13 -12 -13 -13 -13 -16 -17 -17 -17 -14 -19 -18 -15 -10 -8 -6 -6 -5 -5 -5 -5 -5 -4 -4
-1 -1 -1 -1 -4 -8 -14 -19 -20 -19 -20 -22 -23 -23 -24 -23 -21 -19 -16 -13 -12 -12 -12 -12 -12 -12 -11 -10 -9 -9 -9 -9 -8 -8 -7 -7 -7 -7 -7 -7 -6 -5 -4
-1 -0 -1 -3 -7 -13 -18 -20 -18 -19 -21 -22 -23 -24 -23 -21 -20 -18 -16 -14 -10 -10 -11 -12 -12 -11 -10 -9 -9 -9 -9 -9 -8 -8 -7 -7 -7 -7 -6 -6 -5 -5 -5
-0 -1 -3 -6 -12 -18 -19 -18 -19 -21 -22 -23 -23 -23 -22 -20 -20 -18 -16 -14 -12 -9 -9 -12 -11 -10 -9 -9 -9 -9 -9 -8 -9 -8 -8 -8 -8 -8 -7 -7 -7 -7 -6
-1 -3 -6 -12 -17 -19 -17 -18 -20 -21 -22 -23 -23 -22 -22 -20 -19 -18 -17 -15 -14 -11 -9 -13 -10 -10 -9 -9 -9 -9 -8 -8 -9 -10 -9 -9 -8 -8 -8 -7 -7 -7 -6
-2 -5 -11 -16 -18 -17 -17 -19 -20 -21 -22 -23 -24 -23 -21 -20 -20 -19 -18 -16 -12 -10 -9 -9 -10 -9 -10 -9 -8 -8 -9 -10 -10 -11 -10 -9 -8 -8 -8 -8 -8 -7 -7
-5 -9 -15 -18 -16 -16 -17 -19 -20 -21 -23 -24 -23 -21 -19 -18 -18 -17 -14 -10 -9 -9 -9 -9 -10 -12 -8 -8 -9 -11 -11 -11 -11 -10 -10 -9 -9 -8 -8 -7 -7 -8 -7
-8 -14 -17 -15 -15 -16 -17 -18 -20 -23 -24 -24 -22 -19 -18 -16 -15 -12 -9 -8 -8 -9 -9 -9 -9 -8 -9 -10 -12 -11 -11 -11 -10 -10 -11 -9 -9 -9 -9 -9 -8 -8 -8
-13 -16 -15 -14 -14 -15 -16 -19 -23 -25 -24 -23 -21 -19 -17 -14 -12 -9 -9 -9 -9 -9 -9 -8 -8 -9 -10 -11 -11 -11 -10 -10 -10 -10 -11 -10 -10 -11 -11 -10 -10 -9 -9
-16 -14 -13 -13 -14 -15 -17 -22 -26 -25 -23 -20 -19 -18 -15 -12 -11 -9 -9 -9 -9 -9 -8 -8 -10 -9 -11 -11 -11 -10 -9 -10 -10 -10 -10 -10 -10 -11 -11 -11 -11 -9 -9
-14 -13 -13 -13 -14 -16 -21 -25 -26 -24 -22 -21 -19 -14 -11 -11 -11 -11 -10 -9 -8 -8 -9 -10 -10 -11 -10 -11 -9 -10 -10 -10 -10 -10 -10 -10 -11 -11 -11 -12 -11 -9 -9
-13 -12 -12 -13 -15 -20 -24 -26 -26 -26 -23 -19 -15 -12 -11 -11 -10 -9 -9 -9 -9 -11 -10 -10 -10 -10 -10 -10 -10 -10 -10 -10 -10 -11 -10 -11 -11 -10 -11 -12 -12 -12 -11
-13 -12 -13 -14 -18 -24 -26 -26 -26 -24 -18 -13 -12 -11 -10 -10 -9 -9 -9 -9 -10 -10 -13 -10 -10 -10 -11 -12 -11 -11 -10 -11 -11 -11 -12 -11 -10 -10 -11 -12 -12 -11 -10
-13 -13 -14 -18 -24 -26 -26 -27 -24 -14 -10 -9 -9 -9 -10 -9 -9 -9 -9 -10 -10 -12 -10 -10 -12 -13 -12 -12 -11 -10 -10 -11 -12 -12 -11 -10 -11 -10 -10 -11 -10 -10 -9

GFSMA_850_dewp_042.txt.gz
Dewpoint
11 10 10 10 10 10 10 9 9 9 9 8 8 8 6 1 -3 -4 -5 -5 -6 -7 -7 -7 -7 -7 -7 -7 -5 -4 -3 -1 0 2 3 5 6 6 6 7 8 8 8
10 9 9 9 9 9 9 9 8 8 8 7 3 -3 -4 -5 -6 -7 -8 -9 -9 -9 -9 -9 -8 -7 -6 -5 -4 -4 -3 -3 -1 -1 0 2 3 4 4 4 4 5 6
9 9 9 9 9 9 9 8 8 8 1 -4 -5 -5 -7 -8 -10 -10 -11 -10 -10 -9 -8 -6 -5 -7 -11 -14 -17 -18 -19 -17 -14 -10 -9 -10 -13 -13 -8 -4 -1 1 2
9 10 10 9 9 9 9 8 1 -4 -4 -6 -11 -13 -13 -13 -12 -12 -11 -10 -8 -6 -8 -11 -13 -15 -17 -20 -23 -25 -26 -27 -27 -28 -26 -25 -23 -21 -20 -21 -20 -15 -11
10 10 10 9 9 9 7 -3 -3 -3 -7 -11 -14 -13 -14 -14 -13 -13 -11 -11 -11 -11 -12 -14 -14 -17 -21 -24 -26 -28 -29 -29 -30 -30 -29 -28 -27 -26 -19 -14 -5 -6 -8
11 11 10 9 9 5 -3 -3 -2 -4 -8 -12 -14 -15 -17 -17 -16 -14 -12 -10 -14 -18 -18 -18 -20 -23 -25 -27 -27 -27 -27 -28 -28 -28 -27 -24 -18 -12 -0 2 2 2 3
11 11 10 9 5 -3 -2 -1 -2 -5 -10 -13 -15 -15 -19 -19 -21 -17 -14 -14 -16 -20 -21 -23 -25 -26 -25 -25 -25 -26 -26 -27 -27 -28 -25 -20 -15 -2 1 1 2 2 2
11 11 9 6 -3 -2 -1 -1 -3 -6 -10 -14 -18 -14 -11 -12 -10 -14 -16 -21 -20 -22 -23 -25 -24 -25 -25 -26 -26 -26 -26 -27 -27 -27 -25 -15 -1 -0 0 1 1 1 1
11 9 6 -2 -2 -1 -1 -1 -4 -7 -12 -16 -20 -19 -13 -12 -13 -15 -17 -18 -20 -21 -22 -23 -24 -24 -24 -25 -26 -26 -27 -27 -28 -28 -13 -2 -1 -1 -0 -0 0 0 1
9 5 -1 -3 -2 -1 -1 -2 -5 -9 -15 -19 -19 -20 -20 -21 -15 -15 -14 -13 -14 -15 -14 -17 -22 -23 -24 -24 -24 -24 -26 -28 -30 -21 -3 -3 -2 -2 -1 -1 -1 -0 0
4 1 -2 -2 -1 -1 -1 -3 -6 -13 -18 -20 -20 -20 -22 -20 -15 -12 -13 -14 -14 -13 -13 -13 -13 -15 -13 -13 -12 -12 -10 -8 -7 -5 -4 -4 -3 -3 -3 -2 -2 -2 -1
2 -2 -2 -1 -1 -1 -2 -5 -10 -16 -19 -19 -20 -22 -23 -17 -14 -13 -13 -13 -13 -13 -13 -12 -12 -13 -13 -13 -13 -13 -15 -20 -9 -6 -5 -5 -4 -4 -4 -4 -3 -3 -2
-1 -2 -2 -1 -1 -2 -4 -8 -15 -19 -19 -19 -21 -22 -22 -22 -19 -15 -12 -12 -13 -13 -13 -12 -13 -13 -12 -12 -12 -11 -14 -12 -9 -7 -6 -5 -5 -5 -5 -5 -4 -4 -3
-2 -2 -1 -1 -2 -4 -8 -14 -18 -18 -19 -20 -21 -22 -23 -22 -19 -16 -12 -11 -12 -13 -13 -14 -13 -13 -12 -12 -10 -9 -9 -9 -8 -7 -7 -6 -6 -6 -6 -6 -6 -5 -4
-2 -1 -1 -2 -4 -7 -12 -18 -18 -18 -19 -21 -22 -22 -22 -21 -20 -16 -12 -11 -11 -11 -13 -13 -14 -13 -12 -11 -10 -10 -10 -9 -9 -8 -7 -7 -7 -7 -7 -6 -6 -6 -5
-1 -1 -2 -4 -8 -12 -17 -17 -17 -18 -20 -21 -22 -21 -21 -20 -19 -14 -11 -10 -10 -11 -11 -13 -13 -12 -10 -10 -10 -10 -10 -9 -9 -8 -8 -8 -8 -7 -7 -6 -6 -6 -6
-1 -2 -4 -7 -12 -17 -17 -16 -17 -18 -19 -20 -21 -22 -22 -20 -16 -13 -12 -11 -11 -11 -11 -11 -10 -10 -10 -10 -10 -9 -9 -9 -10 -11 -10 -9 -8 -8 -7 -7 -6 -6 -6
-2 -4 -7 -11 -16 -16 -16 -16 -17 -17 -19 -21 -22 -22 -20 -16 -19 -14 -12 -11 -11 -10 -10 -9 -9 -9 -10 -10 -9 -9 -10 -12 -12 -11 -10 -9 -8 -8 -7 -7 -6 -6 -6
-3 -5 -10 -15 -15 -15 -15 -15 -16 -17 -20 -22 -22 -22 -21 -19 -14 -12 -11 -10 -9 -9 -9 -8 -9 -10 -9 -8 -8 -10 -10 -11 -11 -10 -10 -9 -8 -8 -7 -7 -7 -7 -7
-6 -9 -13 -15 -14 -14 -14 -15 -16 -19 -21 -21 -22 -22 -19 -15 -11 -10 -9 -9 -9 -9 -10 -9 -9 -9 -7 -8 -10 -11 -11 -11 -10 -10 -10 -9 -9 -8 -8 -8 -8 -8 -7
-9 -12 -14 -14 -13 -13 -14 -16 -20 -19 -18 -18 -19 -16 -13 -12 -15 -10 -8 -9 -9 -9 -9 -9 -8 -7 -9 -10 -12 -11 -10 -10 -9 -9 -10 -10 -10 -10 -10 -9 -8 -8 -8
-12 -14 -14 -13 -13 -13 -15 -18 -22 -24 -17 -17 -14 -12 -11 -10 -10 -9 -9 -9 -8 -8 -8 -7 -8 -9 -11 -12 -11 -10 -9 -9 -9 -10 -9 -10 -9 -10 -10 -10 -9 -8 -8
-13 -14 -13 -12 -13 -14 -16 -21 -25 -27 -19 -15 -12 -11 -10 -10 -9 -9 -9 -9 -8 -8 -8 -9 -9 -11 -11 -10 -10 -10 -9 -10 -9 -10 -9 -10 -10 -9 -10 -10 -9 -8 -8
-14 -13 -13 -13 -14 -16 -21 -25 -27 -25 -15 -11 -10 -10 -9 -9 -10 -9 -9 -9 -9 -9 -10 -10 -11 -10 -10 -10 -9 -10 -10 -10 -10 -10 -9 -9 -10 -10 -9 -10 -11 -11 -9
-13 -13 -13 -13 -15 -21 -25 -27 -27 -20 -11 -10 -10 -10 -9 -10 -9 -9 -9 -9 -10 -11 -11 -11 -9 -9 -9 -9 -10 -10 -10 -10 -10 -10 -11 -9 -9 -9 -10 -11 -10 -9 -8
-13 -13 -13 -15 -20 -25 -26 -27 -26 -18 -10 -10 -10 -10 -10 -9 -9 -9 -8 -10 -10 -11 -11 -10 -9 -11 -11 -10 -10 -10 -10 -10 -10 -11 -10 -10 -10 -10 -9 -10 -9 -9 -8

GFSMA_850_dewp_045.txt.gz
Dewpoint
10 10 10 10 10 10 10 9 9 9 8 7 7 5 1 -3 -4 -4 -4 -6 -6 -7 -7 -7 -7 -8 -8 -8 -7 -7 -5 -4 -3 -1 -0 1 1 2 3 4 5 5 6
11 11 11 10 9 9 9 9 8 8 7 6 1 -4 -5 -6 -7 -8 -8 -7 -9 -10 -10 -10 -10 -9 -7 -6 -6 -9 -12 -15 -16 -17 -15 -13 -10 -8 -7 -7 -6 -0 3
10 9 9 8 8 9 9 9 8 7 4 -4 -4 -8 -12 -13 -13 -11 -11 -5 -8 -10 -10 -9 -7 -7 -9 -12 -16 -18 -22 -23 -24 -25 -26 -25 -26 -25 -20 -18 -17 -16 -14
9 9 9 9 9 9 8 8 6 -2 -3 -5 -10 -13 -14 -14 -13 -11 -10 -8 -9 -7 -10 -11 -12 -14 -14 -15 -19 -23 -25 -26 -27 -28 -28 -28 -27 -27 -27 -26 -26 -25 -23
9 9 9 10 9 9 9 5 -3 -2 -4 -7 -12 -14 -14 -15 -13 -12 -7 -11 -12 -11 -11 -15 -20 -19 -20 -22 -25 -26 -26 -26 -26 -26 -26 -26 -25 -26 -23 -19 -15 -3 -1
10 10 10 10 9 9 7 -3 -2 -2 -4 -7 -12 -14 -15 -18 -15 -13 -10 -11 -11 -14 -16 -19 -21 -23 -25 -25 -24 -25 -25 -26 -26 -26 -26 -25 -19 -15 -4 0 2 2 3
11 11 11 10 9 8 -3 -3 -2 -3 -4 -8 -12 -14 -11 -14 -16 -12 -12 -10 -9 -13 -16 -17 -21 -23 -23 -24 -24 -25 -25 -26 -26 -26 -26 -24 -16 -5 1 1 1 2 2
11 11 11 10 9 -1 -3 -1 -1 -3 -4 -8 -15 -12 -9 -10 -9 -12 -8 -13 -16 -14 -13 -17 -21 -22 -23 -23 -23 -25 -25 -26 -27 -27 -26 -21 -17 -2 -0 1 1 1 1
11 11 10 9 4 -3 -2 -1 -1 -3 -6 -10 -16 -18 -10 -10 -11 -13 -14 -12 -16 -12 -15 -17 -18 -19 -20 -22 -22 -22 -23 -24 -25 -26 -21 -7 -2 -1 -1 -0 0 0 1
11 11 10 6 -2 -2 -1 -1 -1 -3 -7 -14 -16 -18 -19 -19 -12 -13 -13 -12 -12 -14 -13 -13 -15 -18 -19 -19 -18 -17 -16 -18 -22 -13 -4 -3 -2 -2 -1 -1 -1 -1 -1
11 10 7 1 -2 -2 -1 -1 -1 -4 -9 -16 -19 -19 -19 -16 -13 -11 -10 -13 -14 -13 -13 -12 -12 -12 -14 -13 -13 -13 -10 -8 -6 -5 -4 -4 -3 -3 -3 -2 -2 -2 -1
10 6 1 -1 -2 -1 -1 -1 -3 -7 -13 -17 -19 -19 -20 -17 -14 -12 -12 -13 -13 -14 -13 -14 -13 -14 -12 -12 -12 -12 -10 -8 -7 -6 -5 -4 -4 -3 -3 -3 -3 -3 -2
9 4 -1 -3 -2 -1 -1 -2 -6 -12 -16 -18 -19 -19 -20 -19 -16 -15 -12 -12 -11 -14 -13 -13 -13 -13 -13 -13 -12 -11 -11 -8 -7 -7 -6 -5 -5 -5 -5 -4 -4 -4 -3
4 4 -2 -3 -2 -2 -2 -5 -10 -15 -17 -18 -18 -19 -20 -20 -17 -15 -12 -11 -10 -11 -12 -13 -13 -13 -13 -13 -12 -10 -10 -9 -9 -8 -7 -6 -6 -6 -6 -6 -5 -5 -5
1 -3 -2 -2 -2 -2 -5 -9 -14 -16 -17 -17 -18 -19 -18 -18 -17 -15 -14 -12 -10 -9 -10 -12 -13 -13 -13 -12 -11 -10 -10 -10 -9 -8 -7 -7 -7 -7 -7 -6 -6 -5 -5
-0 -3 -2 -2 -3 -5 -8 -13 -16 -16 -16 -17 -17 -18 -18 -18 -17 -16 -14 -11 -11 -10 -10 -11 -11 -12 -11 -10 -10 -9 -10 -9 -9 -9 -8 -8 -8 -8 -7 -6 -6 -6 -5
-3 -3 -3 -3 -5 -8 -12 -15 -15 -15 -16 -16 -17 -17 -18 -18 -16 -14 -13 -12 -12 -11 -11 -11 -10 -9 -9 -9 -9 -10 -9 -10 -9 -9 -10 -9 -8 -7 -7 -6 -6 -6 -6
-3 -3 -4 -5 -8 -11 -14 -15 -15 -15 -15 -16 -17 -17 -17 -14 -14 -14 -13 -11 -11 -11 -9 -9 -9 -9 -9 -9 -9 -8 -8 -8 -11 -11 -10 -9 -8 -8 -7 -6 -6 -6 -6
-3 -4 -5 -7 -11 -14 -14 -14 -14 -14 -16 -16 -16 -15 -15 -14 -13 -12 -11 -10 -10 -9 -9 -9 -9 -9 -9 -9 -8 -7 -10 -10 -11 -11 -10 -9 -8 -8 -7 -7 -7 -7 -7
-4 -5 -7 -10 -13 -14 -13 -13 -14 -15 -16 -16 -14 -14 -13 -13 -12 -11 -11 -9 -9 -9 -9 -8 -10 -9 -8 -7 -8 -10 -11 -11 -10 -10 -10 -10 -8 -8 -8 -8 -7 -7 -7
-5 -7 -9 -13 -14 -13 -13 -14 -15 -18 -20 -18 -16 -14 -12 -12 -12 -9 -8 -8 -8 -9 -9 -10 -8 -7 -7 -9 -10 -11 -10 -9 -11 -9 -9 -12 -9 -11 -11 -10 -10 -8 -7
-7 -9 -12 -14 -13 -13 -13 -14 -16 -21 -24 -22 -15 -15 -13 -12 -11 -10 -8 -8 -9 -8 -8 -8 -8 -8 -8 -10 -10 -10 -10 -9 -8 -10 -9 -11 -11 -11 -10 -11 -9 -7 -7
-8 -12 -14 -13 -13 -13 -14 -16 -21 -25 -26 -18 -15 -12 -11 -10 -10 -9 -9 -9 -9 -9 -8 -9 -8 -9 -10 -10 -11 -10 -8 -9 -9 -10 -9 -10 -11 -11 -11 -10 -9 -8 -8
-12 -14 -13 -13 -13 -13 -15 -22 -25 -26 -24 -17 -12 -10 -10 -10 -10 -9 -9 -9 -10 -10 -9 -10 -10 -10 -11 -10 -8 -8 -9 -10 -11 -10 -9 -9 -10 -11 -9 -10 -11 -11 -10
-14 -14 -13 -13 -13 -17 -21 -25 -26 -26 -21 -14 -11 -10 -10 -9 -10 -9 -8 -9 -9 -10 -11 -10 -10 -9 -8 -8 -9 -9 -11 -10 -10 -10 -10 -10 -10 -10 -10 -11 -11 -10 -9
-14 -14 -14 -13 -15 -21 -24 -25 -26 -26 -18 -11 -11 -10 -10 -10 -9 -9 -8 -9 -10 -10 -11 -11 -10 -10 -10 -11 -9 -10 -10 -10 -10 -10 -10 -10 -10 -10 -10 -10 -10 -10 -9

GFSMA_850_dewp_048.txt.gz
Dewpoint
7 10 10 10 10 10 10 10 9 8 8 7 6 3 -3 -5 -5 -6 -7 -7 -8 -8 -8 -8 -8 -9 -10 -10 -8 -7 -7 -8 -10 -12 -14 -15 -14 -12 -9 -5 -2 1 3
10 10 10 10 10 9 9 9 9 8 6 4 -1 -4 -5 -7 -10 -11 -11 -11 -10 -10 -10 -10 -10 -10 -8 -7 -8 -11 -15 -18 -20 -22 -23 -24 -24 -24 -24 -21 -16 -12 -12
11 11 10 9 9 8 9 9 9 8 3 -4 -4 -7 -11 -13 -14 -13 -10 -11 -10 -11 -11 -10 -9 -10 -12 -14 -15 -15 -17 -22 -24 -25 -26 -26 -27 -26 -26 -26 -26 -25 -25
11 10 9 9 9 9 8 8 7 2 -3 -3 -5 -9 -12 -14 -15 -12 -11 -10 -11 -11 -11 -12 -13 -16 -19 -18 -18 -21 -25 -25 -25 -26 -26 -26 -25 -25 -25 -24 -22 -22 -21
10 9 9 9 9 9 8 8 3 -3 -2 -2 -5 -9 -12 -15 -16 -13 -12 -11 -11 -12 -11 -14 -17 -19 -22 -24 -24 -24 -24 -25 -25 -25 -26 -26 -25 -23 -22 -21 -16 -5 -2
10 9 9 9 9 9 9 7 -3 -2 -2 -2 -5 -11 -13 -15 -18 -17 -14 -12 -13 -15 -15 -16 -17 -20 -22 -23 -23 -24 -24 -25 -25 -25 -25 -25 -24 -19 -10 -2 1 2 2
10 9 10 10 10 9 9 -2 -3 -1 -1 -2 -5 -11 -14 -12 -13 -12 -14 -12 -12 -12 -16 -17 -19 -20 -21 -21 -22 -22 -23 -24 -24 -25 -25 -22 -15 -10 -3 -0 1 1 2
11 10 10 10 10 9 6 -3 -2 -1 -1 -3 -7 -11 -12 -11 -10 -9 -13 -13 -12 -15 -16 -16 -16 -18 -18 -19 -21 -22 -22 -22 -23 -24 -22 -15 -10 -3 -1 0 1 1 1
11 11 11 11 10 9 1 -2 -1 -1 -1 -3 -8 -12 -15 -10 -12 -15 -13 -12 -14 -14 -14 -14 -16 -16 -17 -18 -19 -20 -19 -20 -19 -14 -5 -4 -2 -1 -1 -0 -0 -0 0
11 11 11 11 10 7 -2 -2 -1 -1 -2 -4 -8 -14 -18 -19 -19 -18 -15 -13 -13 -12 -13 -16 -16 -17 -17 -18 -17 -16 -16 -16 -11 -7 -4 -3 -2 -2 -1 -1 -1 -1 -1
11 10 10 10 8 1 -2 -2 -1 -1 -2 -6 -11 -16 -18 -18 -18 -14 -14 -17 -18 -17 -19 -18 -17 -16 -15 -14 -13 -13 -13 -11 -8 -5 -4 -3 -3 -2 -2 -2 -1 -1 -1
10 10 10 9 4 -1 -2 -1 -1 -1 -4 -9 -14 -17 -18 -18 -17 -14 -14 -18 -18 -18 -18 -19 -19 -16 -14 -13 -13 -13 -13 -10 -7 -6 -5 -4 -4 -4 -3 -3 -3 -3 -2
9 9 7 3 -1 -2 -2 -1 -1 -3 -7 -12 -16 -17 -17 -18 -19 -18 -16 -16 -14 -18 -19 -19 -17 -17 -15 -14 -13 -13 -13 -9 -8 -7 -7 -5 -5 -5 -5 -5 -4 -4 -3
9 7 5 1 -2 -2 -1 -2 -3 -6 -10 -15 -16 -17 -17 -17 -18 -17 -16 -13 -13 -15 -16 -17 -18 -19 -15 -13 -13 -13 -14 -12 -9 -8 -7 -6 -6 -6 -6 -6 -5 -5 -5
7 5 1 -2 -2 -2 -2 -3 -6 -9 -14 -16 -16 -16 -16 -17 -17 -17 -16 -15 -12 -9 -10 -14 -13 -14 -16 -15 -13 -13 -12 -12 -8 -8 -7 -7 -7 -7 -6 -7 -6 -5 -5
5 2 0 -3 -2 -2 -3 -6 -9 -13 -15 -15 -15 -15 -16 -16 -17 -18 -18 -17 -15 -12 -10 -13 -13 -13 -11 -10 -10 -11 -11 -9 -10 -8 -7 -7 -7 -7 -7 -6 -6 -5 -5
2 -1 -1 -2 -3 -4 -5 -8 -13 -15 -15 -14 -15 -15 -16 -17 -17 -18 -18 -16 -15 -12 -11 -11 -11 -9 -9 -9 -10 -9 -11 -9 -8 -8 -9 -8 -8 -7 -7 -6 -6 -6 -5
-1 -2 -3 -3 -5 -5 -8 -12 -14 -14 -14 -14 -15 -15 -16 -17 -18 -18 -15 -14 -12 -11 -10 -9 -9 -9 -9 -10 -11 -10 -9 -10 -11 -10 -9 -9 -8 -7 -7 -7 -6 -6 -6
-2 -3 -4 -5 -5 -8 -11 -14 -14 -14 -14 -14 -15 -16 -17 -17 -17 -15 -14 -12 -12 -12 -10 -9 -9 -10 -11 -10 -9 -9 -11 -11 -10 -11 -10 -9 -9 -8 -7 -7 -7 -7 -7
-1 -3 -6 -6 -7 -10 -13 -14 -13 -14 -14 -16 -18 -18 -17 -15 -13 -12 -11 -10 -9 -8 -8 -9 -9 -9 -8 -8 -9 -8 -9 -10 -11 -11 -11 -12 -8 -11 -10 -9 -10 -9 -7
-5 -7 -5 -7 -10 -13 -13 -13 -13 -14 -16 -20 -22 -22 -17 -15 -13 -10 -9 -9 -8 -8 -8 -8 -8 -8 -8 -8 -8 -9 -9 -10 -12 -11 -8 -11 -11 -12 -13 -12 -12 -12 -8
-5 -5 -6 -10 -13 -14 -13 -13 -14 -16 -21 -23 -24 -21 -18 -15 -14 -10 -9 -8 -8 -8 -8 -9 -8 -8 -8 -9 -9 -9 -11 -11 -9 -9 -9 -11 -12 -12 -12 -11 -11 -9 -8
-5 -6 -9 -13 -14 -13 -13 -14 -17 -22 -23 -24 -23 -19 -15 -12 -11 -10 -10 -9 -9 -8 -9 -8 -9 -10 -9 -9 -9 -10 -9 -8 -9 -10 -10 -10 -12 -11 -11 -11 -11 -11 -9
-5 -10 -13 -14 -14 -14 -13 -17 -22 -24 -25 -26 -23 -17 -11 -10 -10 -9 -9 -8 -8 -9 -10 -9 -9 -9 -9 -9 -9 -8 -9 -9 -11 -11 -10 -10 -11 -11 -11 -11 -12 -12 -11
-8 -12 -14 -14 -14 -14 -16 -21 -23 -24 -26 -26 -21 -16 -13 -10 -10 -9 -8 -9 -9 -10 -10 -11 -10 -9 -9 -9 -9 -9 -10 -10 -11 -10 -11 -10 -10 -10 -11 -12 -12 -11 -10
-14 -15 -15 -13 -14 -18 -20 -21 -23 -24 -24 -23 -20 -15 -12 -9 -9 -9 -9 -8 -8 -10 -11 -10 -11 -12 -12 -11 -11 -10 -10 -10 -10 -10 -11 -10 -11 -11 -11 -11 -11 -11 -11